GFSWCAN_925_thetae_171.txt.gz
Theta_e
293 293 293 293 293 293 293 294 294 294 294 294 294 295 296 297 298 298 302 302 303 302 303 299 299 299 299 299 301 298 300 299 298 302 301 300 299 298 298 297 301 303 303 303 301 304 304 301 301 304 300 298 299 301
292 292 293 293 293 293 293 293 293 294 294 294 294 294 295 296 296 300 302 302 302 302 303 301 301 300 300 299 298 296 300 298 299 299 298 297 299 295 296 302 297 301 301 303 303 304 301 300 300 298 296 297 299 301
291 292 292 292 292 293 293 293 293 293 294 294 294 294 294 295 296 297 303 302 303 303 302 301 302 300 301 300 299 300 297 297 297 295 296 297 301 296 299 298 298 298 297 301 301 301 298 297 294 295 296 296 299 299
291 291 291 292 293 293 293 293 293 293 294 294 294 293 294 295 295 297 302 302 303 304 305 301 299 298 299 300 300 300 297 296 294 295 297 298 300 296 299 298 297 298 297 299 299 298 298 298 296 295 294 298 299 298
291 290 291 291 291 292 293 293 292 293 294 294 294 293 295 295 294 296 303 303 303 304 305 299 296 296 297 299 299 299 297 296 296 298 298 300 296 297 295 296 297 295 298 300 302 300 299 298 296 295 296 298 298 299
290 291 290 291 291 291 292 293 292 293 294 294 293 293 294 295 293 299 297 303 302 303 302 303 295 296 296 297 296 295 295 295 295 298 297 296 295 298 300 301 298 296 295 296 299 297 296 296 294 295 296 296 297 297
290 290 290 290 290 291 292 292 292 292 293 294 293 293 295 295 294 297 301 301 302 303 302 301 300 296 296 295 294 294 295 294 296 297 298 298 297 297 299 302 300 297 298 298 297 297 299 298 298 295 296 295 297 295
290 290 290 290 290 291 292 292 291 292 292 293 293 294 296 296 295 298 299 302 302 302 303 301 300 299 296 296 297 292 296 295 295 296 295 298 296 296 301 301 299 298 298 298 297 295 295 293 294 296 294 293 295 294
290 290 290 291 291 290 291 292 292 291 293 293 292 295 296 298 300 302 302 301 303 301 302 302 300 302 296 296 296 295 294 298 293 298 298 298 298 300 302 301 300 298 297 296 293 293 294 294 294 294 295 294 294 293
290 290 290 291 291 290 291 292 292 292 293 292 295 296 299 300 299 302 301 297 300 301 298 300 294 300 298 297 298 298 295 298 298 298 294 299 300 299 297 294 293 292 292 291 294 296 297 296 294 295 294 294 294 294
290 291 290 290 291 291 291 291 291 292 291 294 294 295 294 296 295 296 298 301 299 302 301 295 294 299 296 299 300 296 298 297 295 296 298 298 300 298 293 293 291 290 289 289 290 291 292 292 293 293 293 293 293 293
290 291 291 290 290 290 291 291 291 291 291 292 293 293 292 293 296 300 301 300 302 303 300 297 297 297 296 295 298 296 298 296 295 296 300 299 296 294 292 291 290 289 290 290 291 291 291 291 292 292 291 292 293 294
290 290 290 291 291 290 291 291 292 291 291 293 292 292 295 297 299 302 303 303 302 301 297 297 298 298 296 296 296 297 297 298 296 299 299 294 294 292 290 289 289 289 290 290 290 291 292 293 294 293 292 293 294 293
289 290 290 290 290 291 291 291 291 291 293 295 295 296 297 299 299 298 296 301 296 299 298 299 297 301 299 301 299 298 297 297 301 302 298 289 291 290 289 289 289 290 291 290 289 288 289 288 289 291 292 293 292 291
289 289 290 291 290 290 290 290 291 291 293 294 294 296 296 296 292 294 296 297 297 298 298 299 299 300 302 301 298 295 297 298 302 300 292 289 289 289 290 289 289 289 289 290 289 288 288 288 289 289 290 291 292 291
290 290 290 290 290 289 289 289 290 291 290 292 292 293 293 294 293 296 298 299 296 299 296 298 300 300 302 299 293 293 295 295 295 290 289 290 290 289 290 290 289 289 289 289 289 289 289 288 289 288 289 290 290 291
290 289 290 290 290 289 288 289 288 285 289 290 291 291 291 292 293 294 295 296 297 299 300 297 300 298 297 292 294 291 291 291 291 289 289 291 292 291 290 289 289 289 290 288 288 288 288 288 289 289 287 287 288 289
289 289 290 291 288 287 288 287 280 283 288 288 291 289 290 289 290 291 292 294 297 296 292 293 291 289 289 292 297 293 290 289 291 292 291 290 290 289 290 289 289 289 289 289 288 288 289 289 288 287 287 288 288 288
289 290 290 288 287 287 281 283 282 283 286 288 288 288 289 289 288 288 289 291 293 293 293 290 290 287 296 292 292 293 292 290 290 288 287 288 289 289 288 288 288 288 288 289 289 288 288 288 287 288 288 288 287 288
290 290 288 287 287 283 277 279 285 284 287 287 287 287 287 287 287 287 287 287 292 294 294 293 293 293 292 291 291 290 289 287 287 288 288 288 288 288 287 287 288 288 289 289 290 290 289 289 289 289 289 289 288 288
290 289 288 286 286 285 278 278 280 285 286 286 285 285 285 285 285 285 285 286 289 288 291 289 289 288 287 287 287 287 287 287 287 287 288 287 287 287 287 287 287 287 287 287 287 288 289 288 288 289 289 288 288 288
289 288 287 284 276 276 276 280 282 282 282 282 281 281 281 282 283 283 282 287 286 286 287 288 287 287 287 286 284 285 286 286 286 287 286 287 285 283 284 285 286 284 286 286 287 287 288 288 289 289 289 288 288 288
287 287 283 278 275 275 277 278 278 278 279 278 275 278 277 280 279 280 283 283 285 283 283 284 284 285 285 284 283 283 284 284 283 283 283 284 284 285 285 286 286 285 285 286 286 287 287 287 288 288 288 288 287 286
286 276 272 269 269 276 270 272 273 274 273 275 275 276 277 277 276 280 283 283 283 282 281 281 282 284 283 282 281 282 282 283 283 283 283 283 284 283 282 283 284 285 285 286 287 287 286 286 286 286 286 285 284 283
279 277 273 273 265 272 270 269 269 274 275 271 274 274 275 272 275 277 280 283 281 281 279 279 280 281 281 281 282 281 281 282 283 284 284 284 284 283 282 282 283 284 284 286 285 286 285 285 285 285 285 284 283 283
276 278 276 274 275 274 275 275 271 271 270 272 272 271 271 273 277 277 278 278 280 280 278 278 280 283 283 283 280 282 282 281 282 283 283 283 283 283 281 283 282 282 284 285 285 283 283 283 283 283 282 282 282 282
276 275 276 280 277 276 277 276 276 273 270 275 270 271 272 278 279 278 277 277 278 277 276 277 278 281 282 280 280 280 281 282 282 282 282 280 280 281 281 281 280 281 284 284 284 284 283 282 282 281 280 280 279 279
275 275 276 276 276 273 272 270 272 274 273 272 274 274 274 275 278 277 276 276 276 276 278 279 279 279 279 279 279 279 279 280 280 280 279 279 280 281 281 281 281 281 282 282 282 281 281 281 280 279 279 278 277 277
276 277 277 275 272 273 274 275 276 277 278 274 274 275 274 275 273 273 275 275 276 277 277 277 278 279 278 278 279 280 280 281 281 277 279 277 276 277 279 280 281 281 281 281 280 280 280 279 279 278 277 277 276 276
273 272 274 271 273 276 274 273 273 274 277 278 279 277 276 274 274 274 274 275 275 275 276 276 277 278 279 278 277 278 279 281 281 281 279 275 276 277 278 279 279 279 279 279 279 279 279 279 279 279 278 278 277 277
270 269 272 273 273 271 270 269 270 276 273 273 273 273 273 272 274 274 274 274 275 276 277 276 277 278 279 278 278 276 276 278 279 279 279 278 277 278 278 278 278 279 280 280 280 279 279 279 278 278 277 276 276 275
268 265 268 274 271 266 263 265 266 270 272 274 274 272 272 273 272 270 273 274 274 273 275 275 275 276 278 279 279 279 278 278 278 278 278 278 278 278 278 278 278 279 279 279 279 279 278 278 277 276 276 275 275 274
260 260 259 263 266 267 264 264 265 268 268 269 270 271 271 274 274 271 273 273 273 273 273 274 275 276 277 278 279 279 280 280 280 280 279 278 278 278 279 279 279 279 279 279 278 278 277 277 276 275 274 274 274 274

GFSWCAN_925_thetae_174.txt.gz
Theta_e
293 293 293 293 294 294 294 293 294 294 294 294 294 294 294 295 295 296 297 297 299 301 303 303 303 304 303 303 306 304 304 303 304 308 308 307 305 302 302 302 306 308 309 308 307 309 311 305 303 306 305 304 302 303
292 292 292 293 293 292 293 293 293 293 293 293 294 294 294 295 294 296 297 296 300 302 303 301 303 302 304 303 305 300 305 305 306 308 305 304 303 299 302 306 299 305 307 307 307 309 306 303 304 303 302 302 302 302
291 291 291 292 292 292 293 293 294 294 293 293 294 294 295 294 294 296 295 296 302 300 302 302 302 301 299 300 303 304 302 302 302 301 303 303 305 302 303 303 302 300 301 304 304 304 303 303 301 299 298 299 300 301
291 291 291 291 291 292 292 293 293 294 294 293 294 294 295 294 294 295 294 296 299 301 304 303 300 299 299 298 300 300 300 298 299 301 303 304 305 300 303 302 303 302 301 303 303 303 303 301 301 300 299 297 300 300
291 291 291 291 291 291 291 292 292 293 293 293 293 294 294 294 294 296 295 295 298 303 305 300 297 296 298 298 299 299 298 301 302 304 305 305 301 301 299 300 303 300 303 304 306 303 303 303 301 299 300 299 300 301
290 291 291 291 291 291 291 291 291 292 293 292 292 293 294 294 294 295 296 301 300 302 300 303 296 296 296 297 297 297 298 299 301 304 304 300 298 302 305 305 304 300 298 300 303 299 299 300 299 298 298 298 298 299
291 291 291 291 291 291 290 291 291 292 292 292 292 292 294 294 294 296 298 299 300 302 300 301 301 297 296 297 297 298 297 299 301 302 303 302 301 301 303 305 304 300 300 299 299 299 302 299 300 297 297 297 298 297
290 290 291 291 291 290 290 291 291 292 292 292 292 293 293 293 295 296 296 297 297 300 300 303 301 300 296 299 301 296 300 300 300 301 300 303 300 300 305 304 302 299 299 300 299 298 298 298 297 297 296 296 297 298
290 290 290 290 290 290 291 291 291 292 292 292 292 292 295 297 297 297 298 300 301 299 301 302 302 303 297 298 298 298 299 303 297 302 302 302 302 306 305 303 302 300 300 299 296 296 296 297 298 297 296 297 297 298
290 289 290 290 290 290 291 291 291 291 292 292 292 296 297 296 294 295 298 295 296 299 299 301 300 301 300 299 299 301 299 301 303 302 298 303 304 302 300 298 296 296 295 294 296 299 298 298 297 297 296 296 297 297
291 291 291 291 291 291 290 291 291 291 291 290 293 295 294 293 294 294 299 301 299 303 301 298 299 300 298 302 301 299 302 300 304 302 303 302 302 301 295 295 294 293 293 293 293 293 294 294 295 296 296 296 295 296
291 291 290 291 291 291 291 291 291 291 290 290 291 291 292 293 296 299 301 301 303 303 300 299 299 299 298 298 301 298 301 299 304 298 301 302 301 295 294 293 293 292 292 293 293 293 293 293 294 294 295 295 294 295
291 290 290 290 291 291 291 290 291 291 291 291 293 294 295 296 299 301 304 303 303 301 298 298 301 299 298 297 299 299 301 301 297 299 301 301 296 293 292 292 292 292 292 292 292 292 292 292 293 293 294 294 294 294
290 290 290 289 290 291 291 291 291 291 291 292 295 295 297 299 299 299 299 302 300 300 299 301 300 303 300 301 300 303 298 297 301 302 302 297 293 292 292 291 292 292 292 292 291 290 290 290 290 291 292 292 293 294
291 289 290 290 289 290 290 290 289 291 290 292 295 294 296 296 296 295 296 298 298 300 300 301 301 302 303 304 300 298 299 303 302 303 298 293 292 292 292 292 291 292 292 292 291 291 289 289 289 290 290 291 292 292
291 289 290 290 290 290 289 289 290 290 290 292 293 293 293 294 296 297 298 299 297 300 299 300 302 305 304 302 301 301 302 302 301 295 293 292 291 292 292 291 290 290 290 290 290 289 289 289 289 289 289 290 290 291
290 289 289 290 290 289 288 289 289 287 289 290 291 291 290 292 293 294 295 297 297 301 303 302 305 304 299 300 300 296 300 296 293 293 293 293 292 292 292 292 292 291 290 289 289 289 289 288 289 289 289 287 289 290
290 289 290 290 288 287 288 287 285 286 289 288 290 289 289 290 289 290 290 292 296 297 297 300 296 299 301 302 299 295 292 293 293 293 292 291 291 291 290 290 290 291 290 289 288 288 289 289 289 288 287 287 288 288
289 290 289 287 287 287 286 284 284 288 287 288 287 288 289 289 289 288 288 291 293 294 295 294 295 297 297 294 294 293 294 293 291 290 290 289 289 289 289 288 289 289 289 289 289 289 288 287 288 288 288 288 287 287
290 289 288 286 286 283 281 281 283 287 287 287 287 287 288 288 287 286 287 289 293 294 292 292 291 291 293 294 293 293 291 290 290 290 290 289 288 288 287 288 288 288 288 289 290 290 290 289 288 288 288 288 288 287
289 289 288 286 285 284 279 279 283 286 287 286 285 285 286 286 286 285 285 287 289 289 290 289 289 288 287 287 288 288 288 289 289 290 290 289 287 287 287 286 287 287 288 288 289 289 288 288 288 288 288 288 287 287
288 287 286 284 277 276 278 279 282 282 285 284 283 282 283 284 284 284 282 287 286 285 286 288 287 288 286 286 285 285 286 286 286 287 287 287 287 286 286 285 286 286 286 286 286 287 287 287 288 288 288 287 287 287
287 286 281 277 276 276 277 276 280 279 284 282 281 283 282 282 282 281 286 286 284 283 283 284 285 284 284 284 284 283 284 284 284 284 284 284 284 283 283 284 284 285 286 285 285 286 286 287 287 287 286 286 285 284
285 276 272 270 270 276 271 273 274 277 278 279 280 282 281 280 279 285 285 285 284 282 282 282 284 284 284 283 283 283 282 283 284 284 284 284 284 283 282 282 283 283 283 284 285 285 285 285 285 285 284 283 283 282
279 276 273 273 266 274 275 273 274 278 277 275 279 280 279 276 282 282 284 284 283 282 280 281 283 283 283 283 281 281 281 282 283 284 283 283 284 283 283 283 282 282 283 284 284 283 283 284 284 283 283 283 282 281
276 278 276 276 277 276 277 276 273 275 275 277 276 274 274 279 283 283 282 280 280 280 279 280 282 284 283 282 282 282 281 282 283 284 281 282 282 283 283 283 282 282 283 284 283 283 282 282 281 281 280 280 279 279
275 277 278 280 278 276 278 276 276 276 276 278 276 276 278 281 280 281 279 278 278 276 275 276 278 281 281 280 279 279 280 281 282 281 281 280 280 281 281 281 279 281 283 284 284 283 281 280 280 279 278 278 278 277
274 274 276 275 275 273 272 271 273 274 275 274 276 277 280 277 281 277 277 275 275 276 277 278 278 278 278 278 278 278 279 280 279 279 279 279 280 280 280 279 280 281 281 281 281 281 281 280 279 279 278 277 276 276
275 276 277 274 271 273 274 275 277 279 278 276 277 278 276 275 273 273 274 274 275 276 276 276 277 278 278 278 279 279 279 280 280 277 278 278 277 278 280 281 280 280 280 280 279 279 279 279 278 278 278 277 277 277
273 272 273 269 272 275 273 272 274 273 277 278 278 277 275 274 273 273 274 274 274 273 274 275 276 277 278 277 277 278 279 280 280 280 278 277 276 277 278 279 279 279 279 279 279 279 279 279 278 278 278 277 277 276
270 269 271 272 272 271 270 268 269 275 274 275 274 274 273 273 273 273 273 274 274 275 276 275 276 277 277 276 276 276 276 278 281 280 279 278 278 278 278 279 279 279 279 280 280 279 279 278 277 277 276 276 275 275
268 264 268 274 271 267 264 267 268 269 271 273 272 272 272 272 272 271 272 273 274 273 274 274 275 276 277 278 279 279 279 277 278 278 278 278 278 278 278 279 279 279 279 279 279 278 278 277 277 276 275 275 274 274
260 260 260 263 266 267 264 265 266 268 269 268 270 271 271 274 273 272 272 272 272 272 273 274 274 276 277 278 278 278 278 278 278 278 278 278 278 278 278 278 278 278 278 278 278 278 277 277 276 275 275 274 274 274

GFSWCAN_925_thetae_177.txt.gz
Theta_e
293 293 293 293 293 293 294 294 294 294 294 294 294 294 294 295 295 295 295 295 296 296 297 298 300 304 305 306 307 306 306 305 305 308 310 310 309 306 306 306 308 309 310 309 309 311 312 308 305 306 307 306 305 304
292 293 292 293 293 293 293 293 293 294 294 294 294 294 294 295 295 295 295 294 296 296 298 297 298 299 303 305 305 304 306 305 306 308 309 308 308 306 306 306 305 310 310 310 310 310 307 306 306 305 303 302 303 303
291 292 292 292 292 292 292 292 293 293 294 294 294 294 294 295 294 295 294 294 295 296 297 297 301 300 301 303 304 305 303 303 304 307 308 309 308 306 305 305 305 304 306 306 306 308 306 306 305 303 303 301 301 303
291 291 291 292 292 291 291 292 292 292 292 293 293 294 293 294 294 294 295 294 295 295 299 303 300 301 301 300 302 303 304 302 301 302 306 307 306 304 306 305 305 304 303 305 305 306 305 304 304 303 303 301 300 302
291 291 291 291 292 292 291 291 292 292 292 292 292 294 293 293 293 294 294 294 295 296 302 303 298 298 298 299 299 300 300 303 302 303 306 307 305 303 303 303 304 302 305 305 306 306 306 305 303 302 302 302 301 302
290 291 291 291 291 291 292 291 292 292 291 292 292 293 293 293 293 293 295 299 299 295 297 302 296 297 296 297 299 299 300 302 304 306 308 305 301 305 307 306 306 304 303 304 305 302 302 302 301 300 301 300 300 300
291 291 291 291 291 291 291 291 291 291 291 292 292 293 293 293 293 294 294 297 296 294 295 301 302 296 297 297 298 299 299 301 303 306 306 305 304 304 306 306 305 304 303 302 300 301 303 302 302 300 299 299 299 299
290 290 290 290 291 291 291 291 291 291 291 292 292 292 293 293 293 294 294 294 294 295 295 303 303 299 295 298 300 299 302 302 303 305 303 305 303 304 307 305 305 303 302 301 302 301 301 299 299 300 298 298 299 300
290 290 290 290 291 291 291 291 291 291 291 291 292 292 292 294 296 296 297 296 297 296 300 302 302 304 297 300 300 300 302 305 300 305 305 305 306 307 306 305 305 302 302 302 300 299 299 299 299 299 299 298 298 300
290 290 291 291 292 291 291 291 291 291 291 291 291 292 294 297 295 293 298 298 298 298 296 303 302 302 301 302 303 303 302 304 306 304 301 305 306 305 304 303 302 300 299 297 298 300 299 299 299 299 298 298 298 299
290 291 291 292 292 291 291 291 291 291 291 291 292 294 293 291 293 296 298 299 299 301 300 302 301 301 299 304 304 302 304 303 307 305 305 305 304 304 301 300 298 297 296 296 296 296 295 296 296 297 298 298 298 297
290 290 291 291 290 291 291 291 291 291 290 291 291 291 292 293 295 299 301 301 303 306 301 301 301 300 299 300 302 299 304 301 307 300 303 304 304 298 297 296 295 295 294 295 295 295 295 295 295 295 296 297 297 296
290 290 291 291 291 291 291 291 291 291 291 291 292 292 294 295 298 300 303 305 305 301 300 301 302 300 298 299 302 302 303 304 299 301 302 304 300 296 295 294 294 294 294 294 294 293 293 293 293 294 295 295 295 295
290 290 291 290 289 290 290 291 291 291 291 291 292 296 296 299 299 300 299 299 300 302 300 302 301 303 301 303 302 304 300 298 301 302 304 302 297 295 295 294 294 295 294 293 292 292 292 291 292 291 292 293 294 295
290 290 290 290 290 290 290 290 290 290 290 290 294 295 297 297 296 297 297 297 298 300 302 301 301 302 304 303 304 299 299 303 302 304 302 296 295 295 295 294 294 294 294 293 293 292 290 290 291 291 291 292 293 293
290 290 290 290 290 290 290 289 290 289 289 290 292 294 295 295 297 296 297 299 297 300 300 300 303 306 306 305 303 303 303 304 304 298 295 295 294 294 293 293 292 292 292 292 291 291 291 291 291 290 290 290 291 292
289 289 289 289 290 290 289 289 289 289 289 291 294 292 291 291 293 293 293 295 294 299 304 303 307 307 302 305 305 300 304 298 296 295 294 294 294 294 293 293 292 291 291 291 291 290 290 290 290 290 290 288 289 290
289 289 289 289 289 287 288 288 289 289 290 290 290 291 290 290 291 291 290 291 293 298 300 302 300 303 304 305 302 296 295 295 295 294 293 292 292 291 291 292 291 291 290 289 289 289 290 290 290 289 288 288 288 288
289 289 289 288 287 287 289 286 286 289 289 289 289 289 289 290 290 289 289 289 292 294 296 297 300 301 298 296 296 295 295 293 293 292 291 291 291 291 290 290 290 290 291 291 290 290 289 288 289 289 288 288 288 288
290 289 288 286 286 286 286 286 284 288 289 288 288 288 289 289 288 287 288 288 293 293 291 292 291 291 294 294 295 294 293 292 292 291 291 290 289 289 288 289 289 289 290 290 290 290 290 290 288 288 288 288 288 287
289 289 287 286 284 284 284 284 287 287 287 288 286 286 288 287 287 286 286 285 289 289 290 290 289 289 289 291 290 291 292 293 293 292 291 290 289 288 288 288 288 289 289 289 290 289 289 289 288 288 287 287 287 287
288 287 285 283 282 282 283 281 283 284 286 285 285 284 285 286 285 285 283 287 286 285 286 288 288 288 287 287 287 288 288 288 288 289 289 289 289 288 287 286 288 288 287 287 287 287 287 288 287 287 286 286 286 286
286 284 281 279 281 282 281 278 283 282 286 284 285 287 285 285 284 283 287 285 284 283 284 285 285 285 285 285 284 284 285 286 286 286 286 286 285 285 285 285 285 287 287 285 285 285 285 286 286 285 285 284 284 283
284 277 277 278 279 279 277 278 279 281 282 283 285 286 284 282 281 288 286 285 284 283 283 284 285 286 285 284 284 283 283 285 285 285 285 285 285 284 283 284 284 283 283 284 285 284 284 284 284 283 283 283 283 283
282 278 278 277 276 279 279 280 280 283 283 281 284 284 282 279 286 285 286 284 283 282 282 284 284 284 284 283 283 282 282 284 285 285 284 284 284 284 284 283 282 282 283 285 283 283 283 283 283 283 282 282 281 280
279 279 280 280 281 282 280 281 280 280 280 283 281 279 279 284 285 284 283 281 281 280 280 280 283 284 283 283 283 283 281 282 284 283 281 281 282 284 285 285 285 282 283 283 284 283 282 281 281 280 279 279 279 279
280 279 281 281 281 280 281 280 279 281 282 282 281 282 284 284 284 282 280 278 279 277 275 277 279 281 281 281 280 279 280 281 281 280 279 279 279 280 282 282 281 281 283 283 282 282 281 280 279 278 277 277 277 276
278 278 279 278 279 278 278 279 280 281 281 278 280 281 282 282 282 278 278 276 274 275 276 277 278 278 278 278 278 278 279 279 279 279 279 279 279 279 280 280 280 281 281 281 281 280 280 279 279 278 278 277 277 277
279 278 279 274 276 279 278 279 280 281 279 280 282 281 279 276 275 275 275 274 275 276 277 278 277 278 278 278 279 279 279 279 280 279 280 280 280 278 279 279 279 280 280 280 280 280 280 279 279 279 278 277 277 276
276 274 278 274 275 279 276 274 277 276 279 279 279 277 277 275 274 273 273 273 274 274 274 275 276 277 278 278 278 278 279 280 280 281 281 280 277 278 279 280 280 280 280 280 279 279 278 278 278 277 277 277 276 276
273 275 277 278 277 274 272 270 271 276 277 278 277 277 276 275 274 273 272 273 274 275 275 276 276 277 277 277 277 278 278 279 281 280 280 279 278 278 278 279 279 279 279 279 279 279 279 278 277 277 277 276 275 275
273 271 275 276 275 271 269 272 273 275 275 277 276 276 276 277 275 274 272 273 273 273 274 274 275 276 277 278 278 279 279 278 278 278 279 278 278 278 279 279 279 279 279 279 279 278 278 277 277 276 275 275 275 274
269 269 268 272 273 274 270 270 272 274 274 274 273 273 274 275 275 273 272 272 272 272 272 273 275 276 277 277 277 277 277 277 277 278 278 278 278 278 278 278 279 279 279 279 278 277 277 276 276 275 275 275 275 274

GFSWCAN_925_thetae_180.txt.gz
Theta_e
293 293 294 294 294 294 294 294 294 294 294 294 294 294 294 294 295 295 295 295 295 295 295 295 295 296 297 299 300 300 304 305 305 307 307 307 307 306 308 306 305 305 305 305 306 308 309 305 302 305 304 303 301 301
292 292 293 293 293 293 293 293 294 294 294 294 294 295 294 294 295 295 295 295 294 295 295 295 296 296 297 297 296 300 304 305 306 306 306 305 306 307 307 308 305 307 307 306 306 308 306 305 306 304 301 301 301 301
292 292 292 292 292 293 293 292 292 292 293 293 294 293 294 295 294 295 295 294 295 295 294 294 294 294 295 295 297 299 301 304 303 304 305 308 308 306 308 304 303 304 304 303 306 305 305 304 304 302 302 301 299 301
292 292 292 292 292 292 292 292 292 292 292 292 292 292 293 293 294 294 294 294 294 294 295 293 294 296 298 299 298 297 299 302 303 303 302 303 308 305 306 305 302 301 302 303 303 303 304 302 302 302 302 301 300 300
291 291 291 291 291 292 292 292 292 292 292 292 292 292 292 292 294 293 293 293 293 294 294 295 294 293 294 299 301 301 301 302 302 302 302 305 305 304 301 300 301 299 301 302 303 303 302 303 301 301 301 301 299 300
291 291 291 291 291 291 292 291 292 292 292 292 292 292 292 292 293 293 293 294 294 296 295 297 296 296 297 298 299 300 301 302 303 303 304 304 303 302 302 302 303 299 301 301 302 301 300 301 300 299 300 299 299 299
290 290 290 291 291 291 291 292 292 292 292 292 292 292 292 292 292 293 293 295 296 294 293 293 299 295 296 297 299 300 300 301 300 301 305 306 302 302 304 303 303 302 301 301 299 300 301 301 300 299 299 298 299 298
290 290 290 290 291 291 291 291 292 292 292 292 291 291 292 292 292 292 292 292 292 293 294 294 298 298 294 298 298 297 298 299 299 302 303 304 301 301 304 304 302 301 300 300 299 300 299 299 299 299 298 297 297 298
290 290 290 290 291 291 291 290 291 291 291 291 291 291 291 291 293 293 295 295 293 294 296 297 302 301 295 298 297 298 300 302 300 302 303 302 303 303 303 302 302 299 300 300 299 299 299 298 298 298 298 298 297 297
290 291 291 291 291 292 292 292 291 291 291 291 291 290 291 293 293 293 294 296 295 295 294 298 300 302 299 300 300 300 299 304 304 303 300 302 302 303 303 302 301 299 297 296 298 299 298 298 298 298 298 297 297 297
290 290 290 290 291 292 291 291 291 291 291 290 290 290 292 291 290 292 294 297 299 299 297 299 301 300 299 303 303 300 303 302 306 302 302 301 302 302 301 299 297 296 295 295 296 295 295 295 295 295 296 296 296 296
290 290 290 291 291 291 291 291 292 291 291 290 290 290 291 290 289 292 298 298 300 303 301 300 300 300 299 300 301 299 304 302 304 299 301 301 301 297 296 295 294 293 294 294 294 295 295 294 294 294 294 295 296 297
290 289 290 290 291 291 291 291 292 291 291 290 290 289 289 289 293 297 297 300 303 300 300 300 301 298 296 297 301 301 303 302 298 301 301 300 298 295 293 293 293 292 293 293 294 293 293 293 293 293 293 294 295 295
289 289 290 291 290 290 289 290 290 291 290 290 288 286 292 294 295 298 298 298 297 296 298 301 299 301 298 301 301 304 299 298 300 301 297 295 294 294 293 292 293 293 292 290 291 290 291 289 290 291 292 293 294 294
289 289 290 290 290 290 290 289 290 290 290 289 288 292 291 295 295 295 296 296 296 297 297 299 299 301 302 302 302 297 298 300 300 298 297 294 294 293 292 293 292 292 292 291 291 288 285 289 289 289 291 292 293 293
290 290 289 290 290 290 290 289 289 289 288 286 287 290 293 293 293 292 293 295 294 293 296 297 303 304 304 304 300 298 298 299 298 294 293 293 293 292 291 291 290 290 290 290 290 290 290 289 289 289 290 290 291 292
290 290 289 289 289 290 290 288 288 288 285 289 289 291 291 291 291 292 291 292 291 292 302 302 305 306 301 303 305 298 298 298 294 293 293 292 293 293 291 289 289 289 289 289 289 289 289 288 288 287 286 288 289 289
290 289 289 289 289 288 288 288 288 287 289 287 290 290 289 289 290 291 289 289 290 293 298 301 299 303 304 304 303 295 295 294 292 292 292 291 292 291 291 289 289 289 288 288 289 289 289 288 287 287 288 288 288 288
290 289 289 289 288 287 285 286 286 288 287 288 289 289 289 289 290 287 288 288 289 290 294 297 299 298 298 296 295 295 294 292 292 291 291 290 290 290 290 290 289 290 290 290 289 288 288 288 288 288 288 288 287 288
289 289 289 286 286 286 282 283 284 287 287 288 287 286 287 289 287 287 287 287 291 292 291 291 291 290 292 294 294 293 292 290 290 289 289 288 288 287 288 288 289 290 290 290 290 290 289 288 288 288 288 288 287 287
289 288 288 285 285 285 282 282 284 287 286 287 285 285 286 287 287 286 285 286 287 286 289 288 289 289 289 290 291 291 291 291 291 290 289 289 288 287 287 288 289 289 289 289 288 289 288 287 287 287 286 286 286 286
288 287 284 284 282 281 278 281 280 283 284 286 286 284 285 286 285 285 283 285 285 284 285 286 286 287 286 286 286 287 288 288 288 289 289 288 288 287 286 287 287 286 286 286 287 287 286 286 286 285 285 285 285 285
286 284 281 280 275 275 276 278 279 280 286 285 285 287 285 285 285 284 286 284 284 283 284 285 284 285 285 284 284 284 285 286 286 286 285 284 284 284 285 285 286 286 284 284 285 285 285 285 284 284 284 284 283 283
283 277 273 273 273 275 273 274 276 281 283 284 286 286 283 282 281 286 285 284 283 283 284 284 285 285 284 283 283 283 283 285 284 284 285 284 284 283 283 283 283 283 283 283 284 283 283 283 283 284 283 283 281 280
278 275 273 273 271 273 273 273 275 280 283 282 285 284 282 280 286 285 285 283 282 281 281 283 283 284 284 284 283 282 283 283 284 283 282 284 284 284 283 281 282 283 284 283 282 282 282 282 281 281 280 280 278 278
275 274 275 277 274 277 276 277 276 277 279 282 281 280 279 285 285 283 282 280 280 279 278 279 282 283 282 282 282 282 281 283 283 281 280 282 283 285 284 280 279 281 283 283 283 281 280 280 279 279 278 278 278 278
274 274 280 281 280 279 278 278 278 278 276 278 280 281 283 284 283 281 280 277 278 276 275 277 279 280 281 280 279 279 280 281 280 279 278 279 281 282 282 281 279 281 282 283 282 281 280 279 278 277 277 277 277 277
275 275 275 274 274 274 273 275 276 278 279 278 278 278 279 281 281 278 277 276 275 275 277 277 278 278 278 278 278 279 279 279 279 279 278 278 279 279 280 280 280 280 281 281 281 281 280 280 279 278 278 278 277 277
275 276 276 271 271 273 274 276 278 279 278 278 279 279 277 276 274 274 274 274 275 276 277 278 278 278 278 278 279 279 279 280 280 279 278 277 276 277 278 278 279 279 280 280 280 280 280 279 279 278 278 277 276 276
273 273 274 270 271 273 272 272 273 274 277 278 277 276 276 275 273 273 273 273 273 273 274 275 276 277 277 278 278 278 279 280 281 280 277 275 276 278 279 280 280 280 280 280 280 279 278 279 278 278 277 277 276 276
272 272 272 273 272 272 270 269 270 276 274 274 273 272 274 273 274 272 272 273 274 275 275 275 276 276 277 277 277 278 277 280 281 280 280 279 278 278 279 279 279 279 279 280 279 279 278 278 277 277 276 276 275 275
270 266 269 272 270 269 269 270 270 271 272 271 271 271 272 272 271 271 272 273 273 272 274 274 274 275 276 277 278 279 279 278 278 279 278 278 278 278 279 279 279 279 280 279 279 278 278 277 277 276 276 275 275 275
265 265 264 266 267 267 265 265 267 269 268 268 270 270 270 271 271 270 271 272 272 271 272 273 274 275 276 276 276 277 277 277 277 277 278 278 278 279 279 279 279 279 280 279 278 277 277 277 276 275 275 275 275 275

GFSWCAN_925_thetae_183.txt.gz
Theta_e
292 293 294 294 294 294 294 294 294 294 294 294 294 294 295 294 294 295 295 295 295 294 293 293 293 293 294 294 294 295 296 295 301 303 304 303 304 302 303 303 302 305 305 306 308 310 308 303 301 303 303 302 301 301
293 292 292 293 293 293 293 293 294 294 294 294 294 294 295 294 295 294 294 294 295 294 294 294 294 294 294 295 294 293 295 296 303 306 302 302 303 301 303 304 302 305 304 303 304 305 303 302 303 301 300 300 300 300
293 293 292 293 292 292 293 293 293 293 293 293 293 294 294 294 293 294 294 294 294 291 292 292 293 294 293 293 294 296 295 295 296 299 302 305 307 304 304 303 303 302 302 303 303 304 303 303 302 301 301 301 300 299
292 292 292 292 292 292 292 292 292 293 293 292 292 292 293 293 293 293 293 294 293 293 293 290 292 293 293 293 294 294 294 295 295 299 301 303 305 305 305 304 304 303 301 303 301 300 300 300 300 300 301 301 300 298
291 291 291 291 291 291 292 292 292 292 293 293 293 292 292 292 292 292 292 293 293 292 290 290 291 292 292 293 293 294 295 296 296 297 302 303 302 303 302 303 304 303 301 303 304 301 301 301 299 300 301 300 298 299
291 291 291 291 291 291 292 292 292 292 292 292 293 292 292 292 292 292 291 293 294 292 294 295 292 291 292 293 294 294 293 298 298 298 301 303 302 303 305 305 301 301 298 298 300 299 299 300 299 299 299 299 298 298
291 291 290 290 290 291 291 291 292 292 292 292 292 292 292 292 292 291 290 292 294 293 293 290 288 293 295 296 297 297 298 301 299 300 302 304 304 305 305 305 304 300 297 297 298 298 300 300 300 298 299 298 298 298
291 290 290 290 290 290 291 291 291 291 292 292 292 292 292 292 291 291 291 291 291 292 292 289 289 294 295 298 298 296 298 297 299 301 302 305 302 302 304 303 305 302 298 298 296 297 298 298 298 299 298 297 298 297
290 290 290 290 291 290 291 291 292 292 292 292 292 292 291 291 291 290 289 291 292 292 289 292 293 293 296 298 298 297 297 300 298 301 303 303 303 304 302 303 302 300 299 299 297 297 298 298 298 297 298 298 297 297
289 290 291 291 291 291 291 292 292 292 292 292 291 290 287 290 291 292 292 290 294 293 292 295 294 297 297 300 300 300 298 303 302 301 300 303 301 302 301 300 299 298 297 296 297 298 297 297 296 298 297 296 296 296
289 290 291 291 290 291 291 292 291 291 291 291 290 287 289 291 289 289 291 294 293 294 295 295 294 295 297 300 302 299 302 303 305 302 303 301 301 301 300 300 298 296 295 295 295 295 295 295 295 295 294 295 295 296
289 290 290 290 290 290 291 292 291 291 290 290 289 290 290 286 281 286 285 292 296 296 298 298 297 295 297 299 301 299 303 302 304 298 303 302 299 298 297 296 293 292 293 293 293 293 294 294 293 293 293 293 294 295
290 290 290 289 290 291 291 291 291 291 290 290 288 284 288 280 288 285 283 292 293 299 298 299 300 299 296 297 300 300 301 302 297 302 302 299 298 294 292 292 291 291 292 292 293 293 293 293 293 293 292 293 294 294
290 290 289 289 290 290 291 290 290 291 290 289 284 285 286 284 285 286 292 295 295 295 296 297 299 299 298 299 301 302 298 299 300 301 298 296 295 293 292 292 291 291 290 288 289 290 290 287 290 291 291 292 293 293
290 290 289 290 289 290 290 289 290 290 289 285 284 285 281 288 292 294 293 292 294 294 296 296 298 298 301 302 301 297 298 298 297 298 295 293 293 292 291 291 291 290 290 289 288 286 283 287 287 288 290 292 293 293
290 290 289 289 289 290 289 290 290 289 287 282 279 283 286 289 290 290 290 291 291 291 291 295 300 303 303 303 298 295 295 296 296 293 292 292 291 290 289 289 289 289 288 287 288 288 288 288 287 287 289 290 291 292
289 289 289 289 289 289 289 288 288 284 282 282 281 283 288 287 289 288 288 290 289 289 293 300 303 305 301 301 302 295 294 297 294 293 291 290 292 289 288 288 288 288 287 287 287 287 286 287 287 287 286 287 288 289
289 289 290 290 289 289 289 288 286 280 280 279 282 283 285 283 286 287 288 287 289 290 290 297 295 300 299 302 302 295 294 293 292 292 292 292 290 288 288 288 287 287 286 285 286 286 287 286 286 285 286 287 287 287
290 289 289 289 288 287 283 285 285 282 281 280 285 286 288 286 285 286 286 287 287 288 290 292 294 294 295 295 295 294 292 292 292 291 290 290 290 289 289 289 288 288 287 287 287 287 286 287 286 287 287 287 286 286
290 288 288 289 287 286 279 277 285 280 281 285 283 282 283 284 286 285 286 286 288 290 289 288 289 290 290 292 293 292 291 290 290 290 289 288 288 289 289 290 290 290 289 289 289 288 287 287 287 287 287 287 286 285
288 287 287 286 285 285 276 275 279 280 284 285 284 283 283 285 285 285 284 284 286 284 286 286 287 287 287 288 289 290 290 290 290 289 288 288 288 288 288 288 288 288 288 288 288 287 286 286 285 285 285 284 284 284
287 286 285 284 280 277 273 279 278 277 280 282 283 283 282 283 283 283 283 283 283 284 284 285 285 286 286 286 287 288 288 287 288 288 288 288 287 287 287 287 287 286 286 286 286 286 285 284 284 284 284 284 283 283
285 284 281 279 274 271 275 275 276 273 281 283 283 284 283 282 283 283 284 283 283 283 283 285 284 284 284 284 285 285 285 286 285 285 285 284 284 284 284 284 285 285 284 283 284 284 284 284 283 283 282 282 281 280
283 277 271 271 268 274 266 270 269 276 279 283 284 284 282 281 281 284 284 283 282 281 281 283 284 285 284 284 283 283 284 284 284 284 284 284 284 282 282 281 283 283 283 283 283 283 283 282 282 281 280 280 279 278
279 275 271 271 264 271 268 270 271 279 283 283 284 284 282 279 282 283 283 281 281 280 279 280 283 283 284 283 283 282 283 283 283 282 282 284 283 282 281 281 281 282 283 282 281 281 280 280 279 279 278 278 277 277
275 272 274 274 270 274 272 275 274 277 279 282 282 281 279 284 282 282 281 279 279 278 277 277 280 282 281 281 281 281 280 282 282 281 279 282 283 283 281 281 281 281 283 283 282 280 279 279 279 278 278 278 277 278
273 273 278 280 279 277 276 276 277 277 275 277 280 281 281 283 282 281 279 276 277 276 275 277 278 280 280 280 279 279 280 281 280 279 279 280 282 283 283 282 280 281 282 282 281 280 279 278 278 277 276 276 276 277
270 273 274 272 272 270 271 271 273 277 278 278 278 277 277 279 280 277 277 275 275 276 277 277 277 278 278 278 278 278 278 278 278 278 279 279 279 280 281 281 281 281 280 280 280 280 280 279 278 278 277 276 275 275
272 274 274 270 268 269 271 273 275 277 278 277 277 277 276 275 274 273 274 274 275 276 276 277 277 278 278 278 279 279 280 280 280 279 279 278 278 277 279 279 279 279 279 279 279 279 279 279 278 278 277 276 275 276
271 271 271 266 269 271 271 271 271 272 275 276 276 276 275 274 273 272 273 273 273 274 275 276 276 277 277 278 278 278 280 281 280 279 278 277 276 278 279 279 280 280 280 280 279 278 278 278 278 277 277 277 277 277
270 269 269 269 269 268 267 269 269 274 273 271 270 271 272 272 273 272 272 273 274 275 275 275 275 276 276 277 277 277 278 280 280 281 280 279 279 279 279 279 279 279 280 280 279 279 279 278 278 277 277 276 276 275
267 264 268 271 270 267 265 265 265 266 269 270 270 270 271 271 271 270 271 272 273 272 273 273 273 274 276 277 278 279 279 278 279 279 279 278 278 278 279 279 279 280 280 279 279 278 278 278 277 276 276 275 275 275
261 261 261 264 266 266 264 265 266 265 265 265 267 268 267 270 270 269 271 271 271 271 272 273 274 275 276 276 276 276 276 277 277 277 278 278 278 278 278 279 279 279 279 278 278 277 277 277 276 275 275 275 275 274

GFSWCAN_925_thetae_186.txt.gz
Theta_e
293 293 292 294 294 294 294 294 294 294 295 294 294 295 294 295 295 295 294 295 294 293 292 292 292 293 293 293 294 293 293 292 295 296 298 299 299 299 300 300 300 301 302 305 306 310 310 303 300 304 301 300 301 300
292 293 293 292 292 293 293 293 294 294 294 294 294 294 294 294 294 293 294 294 294 294 294 293 293 293 293 292 292 292 294 294 295 302 300 299 302 299 300 301 299 301 301 302 304 305 302 300 301 300 299 299 300 299
292 293 293 292 293 293 293 293 293 293 294 294 293 293 293 294 294 293 293 293 293 291 290 291 291 292 293 293 293 294 293 293 293 294 294 297 299 302 302 301 301 300 300 303 302 303 303 303 301 299 299 299 300 298
292 292 292 293 292 292 292 292 293 293 292 293 293 293 293 293 293 293 292 293 293 291 292 289 291 291 291 292 293 293 293 293 293 293 296 297 296 300 304 302 302 300 300 300 302 302 300 301 298 299 298 299 299 298
292 292 292 292 291 291 292 292 292 292 292 293 293 293 292 293 293 292 292 292 292 292 290 290 291 290 291 292 292 292 292 292 293 295 296 296 297 298 299 300 300 300 301 302 304 302 300 302 299 299 299 300 299 298
291 291 291 291 291 291 291 291 292 292 292 292 292 292 293 293 292 292 289 290 291 292 292 292 290 289 292 293 290 290 292 293 295 296 297 297 297 301 303 301 300 300 301 301 302 301 301 298 298 299 299 298 298 298
291 291 291 291 291 291 291 291 291 292 292 292 292 292 292 292 292 291 289 292 293 292 292 292 289 287 293 294 293 292 292 292 294 295 296 297 299 300 304 304 302 301 301 301 298 298 298 298 298 296 298 298 299 298
291 291 291 291 290 290 291 291 291 291 291 292 292 292 292 292 292 292 291 291 291 291 291 289 286 287 292 290 296 297 298 296 296 297 299 299 299 302 304 302 301 301 302 302 296 297 297 297 295 297 296 296 297 297
290 290 291 291 290 291 290 290 291 291 291 292 292 292 291 291 290 290 289 290 291 290 284 288 286 288 292 294 297 297 296 299 297 299 302 302 303 303 303 302 301 302 303 302 297 295 296 297 296 297 296 297 297 297
290 290 290 290 291 291 291 291 291 292 292 291 291 291 289 289 289 289 291 287 289 292 290 289 288 289 293 295 297 299 298 301 302 301 300 303 303 301 301 300 301 300 301 297 296 297 296 296 296 296 296 295 296 296
289 289 289 290 291 291 290 290 291 291 291 291 289 288 289 290 290 284 281 285 291 291 292 291 291 291 292 293 294 297 299 301 304 301 303 303 303 302 301 301 301 298 297 296 296 296 295 295 295 294 294 294 295 295
289 289 289 290 290 290 290 291 291 291 290 290 289 289 289 287 282 285 282 283 291 293 292 293 293 292 292 295 296 298 300 300 304 300 303 302 299 299 300 301 300 295 293 293 293 293 293 293 293 293 293 293 293 294
289 289 289 290 290 290 290 290 291 291 290 289 288 282 283 282 287 286 278 282 290 293 297 296 297 297 295 295 297 300 301 303 297 299 299 298 297 292 291 291 290 290 291 292 292 292 293 292 293 292 292 292 293 294
289 290 290 290 290 289 290 291 291 291 290 289 287 286 286 276 282 281 283 290 291 293 293 293 297 299 298 298 300 302 298 298 295 296 296 291 292 291 291 290 291 290 290 289 290 290 290 288 290 291 291 292 292 292
289 289 289 290 290 290 289 290 290 290 289 288 283 283 279 281 283 291 290 290 292 291 292 290 292 297 300 300 300 297 297 295 296 297 295 291 291 291 291 291 289 289 288 287 287 285 282 286 287 288 290 292 292 293
289 289 289 289 289 290 289 290 290 289 287 286 284 284 281 280 285 285 288 289 290 291 290 290 292 300 301 302 299 298 294 296 296 293 292 292 291 290 290 289 288 287 287 287 287 287 287 287 287 287 289 290 290 291
289 289 289 289 290 289 289 288 288 282 282 280 283 279 280 280 283 285 286 287 289 289 290 294 297 300 300 295 298 295 295 296 293 292 291 290 289 288 287 288 287 287 286 286 286 286 285 286 287 286 285 286 287 288
290 290 289 289 290 289 289 288 285 279 279 276 280 278 281 280 282 284 285 286 288 288 289 292 291 296 300 299 300 295 294 293 292 293 292 290 288 287 287 286 286 285 284 284 284 284 285 285 285 285 285 285 285 285
291 289 290 290 289 287 282 285 286 281 280 277 279 279 282 284 283 282 285 286 287 287 289 290 292 291 292 294 292 294 292 292 291 290 290 289 288 288 287 287 286 285 285 285 286 285 285 285 285 285 285 285 284 285
289 289 289 289 288 286 279 277 283 278 282 280 282 280 283 283 281 282 283 285 286 289 288 287 288 288 288 287 290 291 291 290 290 290 289 289 289 289 289 289 288 288 287 287 287 287 286 286 286 286 285 285 284 283
287 287 288 288 286 285 275 271 275 278 281 284 285 283 281 281 282 283 283 284 284 281 282 284 285 285 286 287 289 290 289 289 289 289 289 289 288 288 288 288 288 288 287 287 286 286 285 285 284 283 283 283 283 283
287 287 286 285 280 276 272 277 277 277 276 277 281 281 280 279 280 283 281 281 282 283 283 283 284 284 285 285 286 287 288 287 287 287 287 287 288 287 287 287 287 286 286 286 285 284 284 283 284 283 283 282 282 281
286 284 281 279 274 271 274 273 274 270 277 279 279 281 280 280 280 282 282 282 283 282 281 283 284 284 284 284 285 285 285 285 285 285 285 284 284 284 284 284 285 285 284 282 283 284 284 283 282 281 280 280 279 279
283 277 271 271 267 273 265 269 266 271 273 280 281 282 281 279 280 280 282 282 282 281 280 280 283 284 284 283 283 283 284 284 284 284 284 284 283 282 282 282 282 282 282 282 282 282 281 281 280 280 279 278 277 277
279 275 271 270 263 270 268 269 267 273 279 282 283 282 281 279 281 282 282 280 280 279 278 279 282 282 283 283 282 282 282 283 283 282 281 282 282 282 281 281 281 281 282 281 280 279 278 279 278 278 278 277 277 276
275 271 273 273 268 274 271 274 272 276 279 282 282 282 280 281 278 279 279 278 278 278 277 277 278 282 281 280 280 280 280 282 283 281 279 282 283 282 282 282 281 280 281 281 280 278 277 278 278 278 278 278 277 277
273 273 274 279 278 277 275 276 277 277 275 278 280 281 282 280 278 279 278 276 276 276 275 276 277 279 280 279 278 278 279 281 281 279 279 281 282 283 283 282 280 280 280 281 281 280 279 277 277 277 276 276 276 276
269 271 274 271 271 269 270 270 273 276 277 277 278 277 278 279 278 276 276 274 274 275 277 277 277 278 278 278 278 278 278 278 279 280 280 280 280 281 281 281 280 280 280 280 280 280 280 279 278 277 277 277 276 276
272 273 273 269 266 267 268 271 274 277 277 276 276 276 275 275 273 273 273 273 275 276 276 277 278 278 278 279 279 280 280 280 280 280 279 279 278 278 279 279 279 279 279 279 279 279 279 279 278 278 277 276 276 276
271 270 270 264 268 271 269 270 271 271 274 275 276 276 275 274 272 272 272 273 273 274 275 275 276 277 277 278 278 279 279 280 280 279 279 278 277 277 278 279 279 279 279 279 278 277 277 278 276 276 276 276 276 276
269 268 268 268 269 267 266 268 269 273 272 270 270 273 273 273 273 272 271 272 273 274 274 274 275 275 276 276 277 278 278 279 281 280 280 279 279 279 279 280 279 279 279 279 278 278 277 277 277 277 277 276 276 276
267 264 267 271 269 267 265 266 265 266 268 269 269 269 271 271 270 270 271 272 272 271 273 273 273 274 275 276 277 278 278 278 278 279 280 279 279 278 278 278 278 278 278 278 278 278 278 278 277 277 276 275 275 275
260 260 260 263 266 267 265 264 265 266 265 265 267 267 266 269 271 269 271 271 271 271 272 273 275 275 275 275 276 277 277 278 278 278 278 278 278 278 278 278 278 278 278 278 278 278 277 277 276 276 275 275 275 275

GFSWCAN_925_thetae_189.txt.gz
Theta_e
294 294 293 293 294 294 294 294 295 295 295 295 295 294 294 294 294 294 294 294 294 293 290 291 291 292 292 292 292 291 291 290 293 294 299 299 298 297 298 297 298 298 300 302 304 306 307 302 300 304 302 299 300 299
293 293 293 294 293 293 293 293 293 294 294 294 294 294 294 294 294 294 293 294 294 293 292 293 293 293 292 292 291 290 291 292 294 300 296 296 300 296 296 297 295 299 298 298 302 302 301 300 299 299 298 300 300 299
292 293 293 293 293 293 293 293 293 293 293 293 293 293 294 293 294 293 293 293 293 294 291 290 291 292 292 292 292 291 290 292 292 292 292 294 293 294 295 301 300 297 297 298 299 299 300 301 301 299 299 299 300 297
292 292 292 292 293 293 293 292 293 293 293 293 293 293 294 293 293 293 292 292 292 291 292 289 290 290 291 291 292 292 292 292 291 291 290 291 292 293 293 295 300 300 299 299 299 299 298 299 300 300 300 300 296 296
291 292 292 292 292 292 292 292 292 292 292 292 292 293 293 292 292 292 292 292 292 291 289 288 290 289 289 290 290 291 291 291 292 293 294 294 293 294 294 294 295 296 299 301 302 300 299 300 298 296 297 297 296 297
291 291 291 292 291 291 291 291 291 291 292 292 292 292 293 293 292 292 289 290 290 292 291 286 288 289 290 290 289 289 290 291 292 293 293 294 294 296 297 297 296 296 296 296 297 298 298 298 297 296 298 297 296 296
291 291 291 291 291 291 291 291 291 291 291 292 292 292 292 292 292 291 289 291 292 291 291 285 287 288 290 289 291 289 289 289 292 293 293 293 296 296 297 297 296 296 298 297 297 298 299 299 299 297 296 296 298 297
291 291 291 291 291 291 290 290 291 291 291 291 292 292 292 292 292 292 291 291 291 291 290 290 287 286 289 286 287 290 293 291 293 293 294 294 294 295 297 296 297 297 298 298 297 297 299 297 295 295 295 295 296 296
290 290 290 290 291 290 291 290 290 290 290 291 291 291 292 291 291 290 290 290 291 290 284 286 284 283 289 289 291 295 296 297 296 295 296 296 297 298 296 296 296 298 299 300 300 299 298 296 296 294 295 295 296 296
290 290 290 290 290 291 290 291 291 291 291 291 291 290 290 290 290 289 290 284 290 288 290 288 285 286 289 290 290 293 293 296 296 298 298 299 299 298 297 299 299 299 299 300 298 297 294 295 295 294 294 295 295 296
289 289 289 289 290 290 291 290 290 291 290 290 289 288 289 290 289 282 279 287 279 286 289 289 289 288 287 288 288 291 293 296 298 299 301 302 301 300 300 299 299 298 297 298 298 299 297 296 294 294 294 294 294 295
289 289 289 289 289 290 290 290 290 290 290 290 289 289 289 286 283 283 280 280 286 290 292 293 293 292 291 291 292 294 296 296 297 300 302 302 301 295 293 296 299 298 296 295 294 294 293 293 293 293 293 293 294 295
289 289 289 289 289 289 290 290 290 290 290 290 289 285 282 281 283 282 276 278 282 290 291 291 290 293 293 293 294 296 298 299 296 301 299 298 295 292 290 291 291 292 292 292 292 292 292 292 293 293 292 292 293 293
289 289 289 289 290 290 290 290 290 290 290 290 287 286 283 274 283 280 281 284 287 287 289 290 291 292 296 295 295 300 297 298 300 298 298 291 291 290 290 290 291 290 291 290 291 291 291 290 290 291 291 292 292 292
289 289 289 289 289 290 289 289 289 290 289 288 285 284 279 280 275 279 282 289 289 288 288 289 289 290 295 299 297 299 298 296 296 297 293 289 290 289 290 290 289 289 288 288 287 286 284 286 287 288 290 291 292 292
289 289 289 289 289 289 289 289 290 289 288 285 283 280 279 282 280 279 282 287 286 287 289 289 290 292 299 299 300 299 296 297 296 293 292 291 291 290 289 289 287 287 287 287 287 287 287 287 287 286 288 289 290 290
289 289 288 289 289 289 290 289 288 284 285 281 283 279 279 277 278 279 280 283 287 288 288 290 292 297 294 300 298 296 295 295 294 293 291 290 291 289 288 287 287 286 285 285 285 285 285 286 286 285 284 284 286 287
289 289 289 289 290 289 288 287 286 281 280 274 279 278 279 278 279 278 279 281 287 286 288 289 290 289 296 296 296 292 290 292 292 291 291 289 288 287 288 286 285 284 283 282 283 283 284 284 284 283 284 284 285 285
289 290 289 290 289 288 283 285 285 281 278 275 277 277 278 281 280 279 281 285 286 286 288 287 289 291 291 290 290 288 288 291 291 290 289 289 288 287 286 285 284 284 284 284 285 285 284 284 284 284 284 284 284 284
290 289 289 289 288 286 277 276 283 280 277 279 280 279 282 282 280 280 281 283 283 287 287 287 287 287 286 286 286 286 289 290 290 290 289 289 289 288 288 287 286 286 286 286 286 285 285 285 285 284 284 283 283 283
288 288 288 288 287 285 277 275 280 277 279 282 282 283 283 281 281 280 280 281 281 282 283 283 283 283 284 285 286 287 289 289 289 289 289 289 288 288 288 288 287 287 286 286 285 285 284 283 283 283 283 283 283 282
287 287 286 286 281 278 274 276 275 274 276 276 280 282 279 278 279 279 279 277 279 280 281 282 282 283 284 285 285 285 286 287 286 287 287 287 287 287 287 287 286 286 285 285 285 284 284 283 283 282 281 281 280 280
286 286 282 279 276 272 274 272 274 269 277 274 277 280 279 278 278 279 279 279 280 281 280 280 281 283 284 284 284 284 284 285 285 285 284 284 284 284 284 283 284 284 284 283 284 284 283 282 281 280 279 279 278 278
284 278 272 270 267 273 265 268 265 268 267 275 278 280 279 278 278 277 280 280 281 280 279 278 281 283 283 283 283 282 283 284 283 283 283 284 283 281 281 281 281 282 282 281 281 280 280 279 279 278 278 277 277 276
279 275 271 272 262 270 269 268 266 270 274 277 279 279 279 277 279 279 281 279 279 279 277 277 279 281 281 282 282 281 282 282 283 282 281 283 282 282 281 280 280 281 281 280 278 278 277 277 277 277 277 277 276 276
278 271 273 270 267 273 270 274 270 272 276 278 279 278 278 279 278 278 279 277 277 278 276 276 277 279 281 280 280 279 279 282 282 281 279 282 282 282 282 282 281 279 280 280 279 278 277 278 278 278 278 277 276 277
273 272 272 278 277 275 274 275 276 275 274 276 278 278 279 278 278 278 277 275 275 276 275 276 277 278 279 279 278 278 279 281 281 279 280 281 282 282 283 281 279 278 279 279 280 280 279 277 277 276 276 276 276 277
269 270 273 269 269 268 270 269 271 274 276 277 278 277 279 278 278 275 275 274 274 275 277 277 277 278 278 278 278 278 278 279 279 280 280 280 279 279 279 280 279 279 280 280 280 280 279 278 278 277 277 276 275 275
271 272 272 268 266 266 267 270 272 276 276 276 276 276 275 274 273 272 273 273 274 275 276 276 277 278 279 279 279 279 280 280 281 282 281 280 278 277 278 278 279 279 279 279 279 279 279 278 278 277 277 277 276 276
270 269 269 263 268 271 268 269 269 271 274 275 275 275 275 274 272 272 272 273 273 273 274 275 275 276 276 278 278 278 279 280 281 281 281 279 277 277 278 279 279 279 279 278 278 277 277 278 277 277 276 276 275 276
269 267 267 267 268 266 265 267 268 273 271 271 272 274 274 274 272 271 271 272 273 274 274 273 274 274 274 275 276 278 278 279 280 281 280 278 278 278 279 279 279 279 279 279 278 278 278 277 277 276 276 275 275 275
266 264 267 270 269 265 263 265 265 268 269 271 270 270 272 273 273 271 271 271 272 271 273 273 272 273 275 275 276 277 278 278 278 278 279 279 279 279 279 279 279 279 279 278 278 277 277 277 276 276 275 275 275 275
259 259 260 263 266 267 264 265 265 264 266 267 267 268 266 269 272 270 271 271 271 271 272 274 275 275 275 276 276 277 278 278 279 279 279 279 279 278 278 278 278 278 278 278 277 277 277 276 276 275 275 275 275 275

GFSWCAN_925_thetae_192.txt.gz
Theta_e
294 294 293 293 293 294 294 294 295 295 295 295 295 294 294 294 294 293 293 294 293 289 290 290 291 291 292 292 292 290 289 289 293 294 297 297 297 295 296 296 295 296 300 300 303 304 303 300 301 304 301 297 299 299
293 293 293 293 293 293 293 293 294 294 294 294 294 294 294 294 294 294 293 293 293 293 290 292 292 292 292 291 290 290 289 290 291 297 294 296 298 294 294 296 294 296 295 296 300 299 298 298 300 298 297 298 298 297
293 293 293 293 293 293 293 293 293 293 293 293 293 294 293 293 294 293 293 293 292 293 291 291 291 292 292 292 292 291 289 290 290 290 290 291 292 293 293 294 299 297 295 297 296 296 296 297 297 297 297 297 298 297
292 292 292 292 293 293 292 293 293 293 293 293 293 293 293 293 293 293 292 292 292 290 289 288 289 290 290 291 291 291 291 291 290 289 287 288 292 291 289 290 291 291 297 298 298 298 298 299 298 297 297 296 295 295
291 292 292 292 292 292 292 292 292 291 292 292 293 293 293 293 293 292 292 292 292 290 287 288 289 289 290 289 289 290 290 290 288 290 292 292 292 291 291 292 293 293 295 295 296 296 297 299 297 296 296 296 298 296
291 291 292 292 292 291 291 291 291 291 291 291 292 292 292 292 292 292 289 291 291 291 291 287 288 288 289 289 288 288 289 289 290 291 291 291 291 292 293 293 292 292 292 293 295 296 296 295 295 295 296 297 298 297
291 291 291 291 291 291 291 291 291 291 291 291 291 292 292 292 292 291 289 290 291 290 290 288 286 287 287 289 288 286 288 289 290 292 292 291 291 294 293 293 292 292 292 293 293 293 294 294 295 295 295 295 296 295
291 291 291 291 291 291 291 290 290 291 290 291 291 291 292 292 292 292 291 291 291 290 290 290 286 285 288 284 284 287 287 286 290 290 291 292 292 292 293 292 293 293 293 293 294 295 295 296 295 294 294 293 294 294
290 291 290 291 291 291 290 291 290 290 290 290 290 290 291 291 290 290 290 291 291 291 286 285 285 283 286 286 286 285 292 293 291 292 293 294 294 294 293 293 293 293 294 295 295 295 295 294 296 295 293 293 294 294
290 290 290 289 290 290 291 290 290 290 291 290 290 290 289 290 290 289 290 284 289 290 287 288 284 285 287 287 287 287 286 289 293 294 293 295 295 294 294 294 295 294 294 294 294 294 295 296 297 296 294 293 293 294
289 289 289 289 289 290 290 291 290 290 289 290 288 285 288 289 289 281 279 287 280 284 287 289 287 289 288 289 289 290 286 288 291 294 296 297 299 298 297 296 295 295 294 294 295 297 298 297 299 298 293 293 293 294
289 289 289 289 289 289 290 290 290 290 289 289 288 288 289 283 279 281 275 278 284 287 289 292 291 290 290 290 290 290 291 294 293 293 300 302 300 296 293 292 291 292 295 296 295 297 297 296 294 293 293 292 293 295
289 289 289 289 289 289 289 290 290 290 290 289 289 286 284 277 280 280 277 278 277 283 282 282 287 289 291 291 293 293 295 294 293 298 301 299 295 292 290 289 290 290 294 295 293 294 293 292 292 292 291 293 293 293
289 289 289 289 289 290 290 290 289 289 289 288 287 285 279 276 280 280 281 281 283 284 285 288 288 289 290 292 291 296 295 297 300 299 299 294 291 290 289 289 290 290 291 291 292 291 291 290 290 291 291 292 292 292
288 288 289 289 289 289 290 289 289 289 289 288 283 282 279 279 273 274 276 281 286 285 285 285 285 287 290 292 295 295 297 299 298 298 295 293 291 289 289 289 288 288 288 289 289 288 287 287 288 288 289 291 291 292
289 289 289 289 289 289 289 289 289 289 288 285 280 283 279 277 276 274 277 285 284 284 286 287 286 287 291 295 298 299 297 297 295 293 293 291 291 290 288 287 287 287 287 287 287 287 287 288 287 286 287 288 289 290
289 289 288 288 288 288 289 288 288 286 282 280 282 281 278 276 278 277 277 280 283 283 283 284 287 291 291 295 298 295 293 291 290 290 292 291 290 289 288 287 287 286 285 285 285 285 285 285 286 285 284 284 285 286
288 288 288 289 289 289 288 288 286 284 282 274 278 278 278 277 276 274 276 275 282 283 285 286 286 287 291 293 293 290 288 287 288 290 290 289 288 288 287 286 284 284 283 283 283 284 284 284 284 283 284 284 284 285
288 289 289 289 289 288 285 284 285 285 280 275 276 275 276 279 277 277 277 281 285 286 287 283 285 287 291 289 287 286 286 286 287 289 289 288 287 287 286 284 284 284 284 284 284 284 283 283 283 283 284 284 284 284
289 289 289 289 288 286 276 276 282 283 279 277 279 278 281 279 276 276 280 282 282 285 284 284 286 286 285 284 284 285 285 286 289 290 289 289 288 287 287 286 285 285 285 285 285 285 284 284 284 284 283 283 283 283
289 288 289 288 287 285 275 272 281 277 277 279 278 281 280 276 278 281 282 281 278 277 278 281 282 282 282 282 284 285 285 287 288 289 289 288 288 287 287 286 286 285 285 284 284 284 283 282 282 282 282 282 282 282
287 287 286 286 282 280 275 275 275 273 273 272 276 280 283 279 278 279 278 275 274 278 279 279 280 280 281 283 284 284 284 285 286 286 286 287 286 286 286 286 285 285 284 284 284 283 282 282 282 281 280 280 280 279
286 286 283 280 282 274 274 271 273 268 275 273 274 279 280 278 278 278 276 276 278 279 279 279 279 279 281 283 283 283 283 284 284 284 284 283 283 283 283 283 284 284 283 282 282 282 282 281 281 279 279 278 277 277
285 279 278 276 271 273 264 267 264 267 265 272 275 279 279 277 277 276 276 277 279 280 278 278 278 281 282 282 282 282 281 283 283 282 283 283 282 281 281 281 281 281 281 280 279 279 279 279 278 277 277 277 276 276
284 278 274 272 262 270 270 268 265 269 272 270 276 278 279 278 278 276 278 278 277 279 277 277 278 279 281 281 281 281 281 280 282 281 280 282 282 281 280 279 279 279 280 279 278 277 277 277 277 277 277 276 276 275
281 272 273 271 267 273 271 274 269 271 271 275 278 277 276 277 277 278 278 277 277 277 276 276 276 278 280 280 279 279 278 280 281 280 279 281 282 282 282 281 280 278 279 279 278 278 277 277 277 277 277 277 276 276
277 273 270 277 276 274 273 274 274 273 274 275 277 278 278 278 277 277 277 275 275 275 274 275 276 277 278 278 278 278 278 279 279 278 278 279 281 282 282 280 277 277 279 279 279 279 278 276 276 275 275 276 276 276
268 269 273 268 268 268 269 268 269 272 275 276 277 277 278 277 278 274 275 274 273 274 275 277 277 278 278 278 278 279 279 279 279 279 279 278 278 278 278 278 279 279 280 280 280 279 279 278 277 277 276 275 275 276
271 272 271 267 265 265 266 269 270 275 276 275 276 277 275 274 272 272 272 272 274 274 275 275 276 278 279 278 278 279 280 281 281 281 280 279 278 276 278 278 278 279 279 278 278 279 279 278 278 277 277 277 276 276
271 269 268 263 269 271 267 268 267 269 273 275 275 275 274 274 272 272 272 272 272 273 273 274 274 275 276 277 278 278 279 280 282 281 280 279 276 276 277 278 278 278 278 279 278 277 277 277 277 276 276 276 276 275
270 267 267 266 268 265 264 266 267 272 271 271 272 274 275 274 273 272 271 272 272 273 273 273 274 274 274 274 275 277 277 278 281 282 279 278 278 278 279 279 279 279 279 279 278 278 277 277 277 276 276 275 275 275
267 264 267 270 268 264 262 263 264 266 269 272 271 271 273 274 275 272 271 271 272 271 272 272 272 273 274 275 276 276 277 278 279 279 278 278 278 279 279 279 278 278 278 278 278 277 277 277 276 276 275 275 274 274
259 259 259 263 266 267 263 263 264 264 266 266 268 269 268 270 273 270 271 271 271 271 271 273 274 274 274 276 277 278 278 278 278 279 279 279 279 278 278 278 278 278 278 277 277 277 277 277 276 275 275 274 274 274

GFSWCAN_925_thetae_198.txt.gz
Theta_e
295 295 295 295 296 296 296 296 296 295 295 294 294 294 294 294 293 293 292 292 292 293 292 291 291 292 293 293 292 292 292 293 294 296 297 296 297 296 296 296 298 300 302 302 302 303 303 301 301 303 301 299 299 299
294 294 294 294 295 295 295 295 295 294 294 294 294 294 294 293 293 293 292 292 293 293 293 291 291 291 291 292 292 292 292 291 292 294 295 295 296 293 296 296 295 296 297 297 300 300 299 299 298 297 297 297 298 297
295 294 294 294 294 294 294 293 294 293 293 293 293 293 293 294 293 293 292 291 291 292 292 290 291 290 291 292 291 293 293 293 293 293 292 292 292 291 291 293 294 296 296 298 297 296 296 296 295 296 296 297 297 299
294 294 294 293 293 294 294 293 293 293 293 293 293 293 293 293 293 292 292 291 291 291 291 291 288 288 288 289 291 291 292 290 291 292 293 292 292 292 291 291 292 292 293 292 293 293 293 293 295 296 296 296 297 297
293 293 293 293 293 293 293 292 292 292 292 292 292 292 292 293 292 292 292 291 291 292 292 291 290 290 289 288 289 290 291 292 292 291 292 292 292 292 292 291 291 291 291 291 291 291 292 292 293 293 293 293 294 295
292 292 292 292 292 292 292 292 291 291 291 291 291 291 292 292 291 291 292 289 291 291 292 292 291 289 288 287 288 288 289 291 291 290 291 291 291 291 291 291 290 291 292 292 292 292 292 292 293 293 293 293 294 294
291 291 292 292 292 292 291 291 291 291 291 291 291 291 291 291 290 291 290 290 290 290 291 290 291 289 286 288 289 289 287 290 290 290 291 291 291 291 292 292 291 291 291 291 292 292 292 292 293 293 293 293 293 294
291 291 292 292 291 291 291 291 290 290 290 290 291 292 291 291 291 291 291 291 290 290 289 290 291 289 287 289 290 289 290 289 290 290 290 291 290 291 291 290 290 291 291 291 291 292 292 292 292 292 293 293 293 294
291 291 291 291 291 291 291 290 289 290 290 290 290 290 291 290 289 289 290 290 290 290 291 290 289 289 287 289 289 289 288 288 289 290 290 290 290 291 290 290 291 291 291 291 291 292 292 292 292 292 293 293 293 294
291 290 291 290 290 290 291 290 290 290 289 288 289 289 290 289 289 289 288 289 289 290 291 290 287 288 288 288 289 289 290 290 291 290 290 290 291 291 291 291 291 292 292 292 292 292 292 292 293 293 293 293 293 294
290 290 290 290 290 290 290 290 290 289 288 288 287 288 287 288 287 283 285 287 285 287 288 288 288 288 289 289 290 290 291 290 291 292 291 293 294 295 295 294 293 293 294 295 294 294 293 294 294 294 294 294 294 294
289 289 289 289 289 289 289 290 290 289 288 288 288 288 287 284 283 285 282 282 284 288 288 289 290 289 289 289 290 290 290 290 291 292 294 297 296 293 292 291 292 292 291 292 292 293 293 295 294 294 294 295 295 296
288 288 289 288 289 289 289 289 290 289 289 287 287 284 286 281 283 284 283 284 285 285 287 288 289 289 289 290 290 291 291 291 292 295 297 297 293 291 290 290 291 290 290 290 292 291 292 294 293 293 296 297 295 294
289 289 288 288 289 289 289 289 289 289 288 287 286 283 285 281 284 284 285 286 285 285 287 288 288 289 289 290 291 290 293 293 296 298 294 293 291 289 289 291 290 290 289 290 291 293 294 295 295 294 293 293 293 294
289 288 288 288 289 289 289 289 289 288 287 287 284 284 282 283 280 280 278 281 283 284 287 287 287 288 289 289 290 292 294 297 294 293 291 290 289 289 288 290 289 289 288 289 291 291 291 292 291 290 290 291 292 292
289 289 289 288 289 289 288 288 289 288 287 287 284 283 282 282 283 280 279 282 283 285 287 287 287 288 289 291 292 292 295 292 290 289 288 288 288 288 288 289 288 288 287 288 289 290 290 290 289 288 288 288 289 290
289 288 288 288 288 288 289 288 288 288 287 283 284 284 283 283 284 283 281 283 281 287 287 285 287 288 287 289 292 293 290 288 288 287 287 287 287 287 288 288 287 286 286 286 286 286 287 286 287 287 287 286 286 286
288 287 288 288 288 288 288 287 287 286 284 281 284 284 282 282 282 280 279 278 285 285 284 286 285 287 289 288 291 287 286 286 286 286 286 286 286 288 288 287 285 285 285 285 285 285 286 286 286 286 286 286 286 285
288 288 287 288 288 288 285 284 283 283 280 279 279 278 279 281 279 278 279 278 280 283 287 286 286 286 288 287 285 284 284 284 284 284 285 286 287 288 287 286 285 284 284 285 285 284 284 285 285 285 286 286 285 285
289 288 289 289 288 286 278 278 279 280 281 279 278 279 280 282 281 279 279 281 284 286 286 285 285 286 284 283 283 282 282 283 283 284 285 286 288 287 286 286 285 285 285 286 285 285 285 285 285 285 285 285 284 283
287 287 288 288 286 284 276 278 281 281 279 279 277 278 281 281 281 281 282 281 284 284 283 282 282 281 281 280 280 281 281 282 283 284 285 286 287 286 286 285 285 284 284 284 284 284 283 283 283 283 282 282 281 281
286 287 287 286 283 279 274 273 275 275 276 275 275 275 279 281 281 281 279 281 281 279 280 280 280 279 279 280 280 280 281 282 282 283 284 284 285 286 286 285 284 284 283 283 283 282 282 281 281 280 280 279 279 278
286 287 285 282 278 276 275 270 275 270 276 275 272 276 279 281 280 279 281 278 279 279 279 278 278 277 278 279 281 282 281 280 282 283 282 283 282 282 282 282 283 282 282 281 282 281 281 281 280 279 279 278 278 277
285 280 273 274 273 277 268 268 267 270 270 273 272 275 278 281 279 279 281 279 278 278 278 277 277 278 279 280 280 280 280 279 280 282 280 282 281 280 280 280 280 279 280 280 280 280 279 279 279 278 278 277 277 276
285 278 273 275 264 272 272 270 268 272 273 268 272 276 280 278 281 279 279 278 277 278 277 276 276 277 278 279 279 279 279 278 279 281 279 281 281 280 279 279 278 279 279 279 278 278 277 277 277 277 276 276 276 275
279 272 273 272 269 274 273 274 269 271 270 270 273 277 277 279 279 280 278 277 276 276 276 275 275 276 277 278 279 279 279 277 280 279 277 278 280 281 281 280 280 278 278 279 278 278 278 278 278 277 277 277 276 274
277 274 271 275 275 273 273 273 273 273 270 272 275 276 278 279 280 278 276 275 274 274 273 273 274 275 277 277 278 278 279 277 276 276 276 277 279 280 279 279 277 276 278 278 278 277 276 275 275 274 274 275 274 274
270 270 274 269 268 268 269 268 268 270 271 274 276 276 277 277 279 274 274 273 273 273 274 275 275 275 276 277 278 278 280 279 279 278 278 277 277 277 278 277 277 278 278 278 278 278 278 277 276 276 275 275 275 276
272 272 271 266 265 266 267 270 271 273 274 274 276 277 276 275 272 272 272 272 272 273 273 273 274 275 277 278 278 278 279 281 281 280 279 278 277 276 276 277 277 278 278 278 278 279 279 278 277 277 276 275 275 275
269 269 270 264 269 271 268 267 266 265 270 273 274 275 274 274 273 272 272 272 271 272 272 273 273 273 273 274 276 278 279 281 280 279 279 278 276 276 277 277 277 277 277 277 276 276 275 276 276 276 275 275 275 275
269 267 267 267 268 265 264 264 265 269 268 270 272 274 275 274 273 272 272 272 272 272 273 272 273 273 272 273 274 275 277 279 279 279 278 277 277 278 278 278 278 278 278 277 277 276 276 276 275 275 275 275 274 275
267 264 268 270 267 263 262 261 262 264 265 271 273 272 273 274 276 273 271 271 272 271 272 271 271 272 274 275 275 276 277 277 277 278 278 278 278 278 278 278 278 278 278 278 277 276 277 276 276 275 275 274 274 274
261 262 261 262 264 266 263 263 265 265 266 267 270 270 270 271 274 271 271 271 271 271 271 273 274 275 276 276 276 277 277 278 278 278 278 278 278 278 278 278 278 278 278 277 277 276 276 276 275 275 275 275 274 274

GFSWCAN_925_thetae_204.txt.gz
Theta_e
301 300 299 298 298 297 297 296 296 296 296 296 295 294 293 292 291 294 292 292 295 294 292 292 293 292 293 292 292 292 292 292 292 292 294 294 295 294 295 296 296 297 301 300 300 301 302 299 301 301 298 297 297 297
299 299 298 298 298 297 297 297 297 296 296 295 295 295 294 292 292 293 294 291 291 294 294 293 292 292 292 292 291 292 292 292 292 292 293 293 294 293 293 294 294 294 294 295 297 300 297 297 298 297 296 295 295 295
299 299 298 298 298 298 298 297 297 296 295 295 294 294 294 293 292 293 294 292 293 293 293 293 293 293 292 292 292 291 291 292 292 292 291 292 290 291 290 290 290 290 291 291 292 295 295 296 295 294 294 294 294 292
297 297 297 297 297 297 296 296 295 295 294 294 294 294 294 292 292 292 293 292 294 293 292 291 291 290 290 290 292 292 292 291 291 290 289 289 290 290 289 290 290 290 290 290 291 291 291 292 293 293 294 292 291 291
295 295 295 295 295 295 295 295 294 294 294 293 293 293 293 293 291 292 293 292 292 292 293 291 291 291 291 290 290 291 292 291 289 288 287 289 290 289 289 289 289 289 289 290 290 290 291 291 291 290 291 291 291 290
295 295 295 295 295 294 294 294 294 293 292 292 292 292 292 292 291 293 293 291 291 290 290 290 292 292 290 290 290 290 291 290 290 288 289 290 290 290 290 289 289 289 290 290 290 290 290 291 291 291 290 291 291 290
295 294 294 294 294 294 294 293 292 292 292 291 291 291 292 290 291 292 292 291 289 291 289 288 290 289 289 289 290 289 290 289 289 289 289 290 290 290 289 290 289 289 289 290 290 290 290 290 290 290 290 290 291 291
293 293 293 293 293 293 292 292 292 291 291 291 291 291 292 290 290 291 290 290 290 291 290 286 288 289 289 288 288 291 289 288 287 288 288 289 289 290 291 290 290 290 291 290 291 290 291 291 290 290 290 290 290 290
293 293 293 293 292 292 292 291 291 291 291 291 292 292 290 290 290 290 289 290 290 290 288 289 289 287 287 288 288 288 288 286 289 288 289 289 290 291 291 291 291 291 292 292 292 292 292 292 292 291 291 290 289 289
292 292 292 292 292 291 291 291 291 291 291 290 290 291 290 289 288 289 289 290 288 290 289 288 289 288 288 289 288 288 287 289 287 291 290 291 291 290 291 291 292 291 291 290 291 290 290 291 292 292 292 291 290 290
292 292 292 291 291 291 291 291 291 288 288 290 290 289 288 289 289 288 284 285 286 284 288 288 288 288 288 287 287 288 286 289 289 291 291 292 293 292 292 289 289 289 289 290 290 290 291 291 291 292 292 292 290 290
291 291 291 291 290 291 291 291 289 289 290 290 289 288 288 287 284 284 281 284 285 288 288 286 286 287 287 289 287 289 290 290 288 291 292 292 294 290 288 288 288 288 288 289 289 290 290 290 290 291 292 292 290 291
291 290 290 290 290 290 290 290 288 287 287 288 288 283 283 281 282 282 280 282 284 286 286 285 285 285 285 288 286 289 288 289 291 292 293 293 290 288 288 288 287 287 288 288 289 288 289 290 292 292 292 293 292 293
289 289 289 289 289 289 289 290 289 288 289 285 282 281 281 281 282 285 286 287 286 286 286 285 285 285 286 285 287 287 289 290 291 294 293 289 287 287 287 287 287 287 287 288 287 288 289 291 292 292 293 294 294 292
289 289 289 289 289 289 289 289 289 288 289 283 282 282 281 284 283 282 281 283 285 285 285 284 284 286 286 285 287 289 290 290 294 292 289 287 286 286 286 286 286 286 288 287 287 287 289 290 287 289 293 294 295 296
289 288 288 289 289 289 288 289 289 288 287 287 286 285 285 283 283 282 281 282 285 285 286 284 283 283 285 286 289 289 290 292 291 288 287 286 286 285 285 285 285 287 287 286 286 287 288 289 290 289 290 291 292 293
289 289 288 289 288 288 289 288 288 287 287 287 283 286 285 285 282 284 283 283 286 285 282 281 283 283 283 284 287 290 290 288 286 285 285 285 284 284 284 285 286 287 286 286 286 287 287 288 288 288 288 287 288 288
288 288 288 289 288 288 287 288 288 288 284 282 285 284 285 283 283 283 281 280 281 281 281 280 282 282 282 284 286 287 285 284 284 284 284 283 283 283 284 285 286 286 286 286 285 286 287 287 287 287 287 287 287 287
287 288 289 288 287 288 287 285 285 283 282 285 282 281 281 282 282 284 282 284 284 285 283 282 281 280 284 283 283 283 282 282 282 282 282 282 283 283 284 285 286 286 286 286 286 286 286 286 286 286 286 286 286 285
288 288 288 288 287 287 281 280 282 284 279 280 280 279 280 281 282 282 282 283 281 282 282 282 284 283 281 279 279 280 280 281 281 281 282 282 282 283 284 285 286 286 285 285 285 285 284 284 285 285 285 284 284 283
287 286 287 287 286 284 282 279 281 282 282 279 280 278 278 283 282 283 283 284 285 283 282 281 280 278 280 280 279 280 280 280 280 281 282 282 282 284 284 285 285 285 285 284 283 283 282 282 282 283 282 282 282 281
286 286 286 286 285 281 277 275 276 277 276 276 275 275 274 277 279 282 278 279 278 277 277 278 276 275 277 277 278 278 279 279 280 280 281 282 282 282 282 282 284 283 283 283 282 282 281 281 281 280 280 279 279 279
285 286 285 284 282 277 275 274 275 274 277 274 272 274 274 277 280 279 279 278 278 278 279 279 278 277 277 277 278 279 280 280 280 280 280 281 281 281 281 281 281 282 281 281 281 281 281 281 280 279 279 278 278 278
285 281 278 275 275 276 272 272 272 273 272 274 273 273 275 280 280 281 280 280 279 279 279 277 277 277 277 278 278 279 279 279 279 279 280 279 281 280 279 279 280 280 280 280 280 280 280 280 279 278 278 278 277 277
285 280 275 275 270 275 275 275 271 273 273 273 272 272 279 279 281 282 282 279 278 278 277 276 276 276 276 277 278 278 278 279 278 278 279 278 280 280 280 279 279 279 279 279 278 278 278 278 278 278 277 277 276 276
281 274 275 276 273 276 275 275 272 272 273 271 272 274 278 280 281 282 279 276 276 276 275 275 274 275 275 276 277 277 278 278 277 277 277 277 278 280 280 280 279 278 279 279 279 279 278 278 278 278 278 278 277 275
279 275 274 276 277 277 277 276 275 274 271 271 272 276 279 279 281 279 277 275 275 275 273 273 273 274 275 276 276 277 278 278 277 277 276 277 277 278 278 278 277 277 278 278 278 277 276 276 275 275 275 275 275 274
274 274 276 272 271 271 272 272 271 270 272 274 275 274 278 279 279 275 274 274 273 273 273 274 274 274 274 275 276 277 278 280 280 280 278 277 277 277 278 278 278 278 278 278 277 277 276 276 275 275 275 274 275 275
273 273 273 269 268 270 269 271 271 274 274 272 274 276 276 275 274 274 274 273 273 273 273 273 274 274 275 276 278 278 280 281 280 279 278 278 277 277 277 277 277 277 278 278 278 278 278 278 277 276 275 275 275 275
270 270 271 266 269 271 269 268 268 267 272 271 273 273 274 274 274 273 273 273 272 272 273 273 273 273 273 274 275 278 278 278 279 279 278 277 276 277 277 277 277 277 277 277 277 276 276 276 275 276 275 275 275 275
271 269 269 271 271 267 265 266 267 270 270 267 272 273 274 274 274 273 272 272 272 273 273 273 272 273 273 273 274 275 277 276 277 277 277 277 277 277 277 278 278 278 278 277 277 277 276 276 276 275 275 274 274 274
269 267 268 270 268 263 265 263 264 266 266 269 274 272 273 274 276 273 272 272 272 271 272 272 271 272 275 276 276 276 276 276 277 277 277 277 277 277 278 278 278 278 278 277 277 277 277 276 275 275 274 274 274 274
263 264 263 265 265 266 264 264 265 264 266 269 271 271 272 272 275 272 271 271 271 271 271 272 274 276 277 277 277 277 277 277 277 277 278 277 277 277 277 277 278 278 278 277 276 276 276 276 275 274 274 274 274 274

GFSWCAN_925_thetae_207.txt.gz
Theta_e
299 299 299 298 299 298 297 296 297 296 296 296 295 294 292 291 292 292 292 292 294 291 291 291 292 291 291 290 289 290 289 289 290 290 293 293 293 292 294 294 296 298 298 298 298 300 299 297 298 299 297 295 295 295
300 300 299 299 298 298 296 296 297 296 296 296 295 294 291 291 292 293 292 291 292 292 293 293 292 292 292 291 289 289 289 290 290 288 290 290 292 289 290 291 290 294 292 292 297 300 294 293 296 295 294 294 294 294
298 299 299 297 297 297 297 297 297 296 296 295 295 294 293 293 291 293 292 293 293 290 290 291 291 292 292 292 291 289 288 290 290 288 289 290 288 289 288 289 289 289 288 289 290 290 290 290 291 290 291 293 293 291
299 298 298 298 298 298 298 297 297 295 295 294 294 294 294 294 292 291 292 293 293 290 288 289 290 290 290 290 290 291 290 291 289 287 287 286 287 288 286 288 288 288 289 289 289 288 288 288 289 290 290 290 290 290
298 298 298 298 298 297 297 296 295 295 294 294 294 294 293 293 292 292 291 292 292 290 291 290 290 290 290 290 290 291 291 289 285 283 281 286 288 288 286 287 288 287 288 288 288 288 288 288 289 289 289 290 290 289
298 298 297 297 297 296 296 295 294 294 294 293 293 293 293 293 292 292 291 290 290 290 283 284 289 290 290 290 289 289 289 288 288 285 285 288 288 287 286 287 288 288 287 288 288 288 289 289 289 289 289 289 290 290
295 295 295 294 294 295 295 294 293 293 292 292 292 292 292 292 291 291 291 290 290 290 282 281 287 288 288 288 288 287 288 287 287 288 289 288 287 288 284 289 289 288 289 289 288 289 289 289 289 289 289 289 290 290
295 295 295 295 295 294 294 293 292 292 292 291 291 292 291 291 291 290 290 290 290 289 286 278 283 285 288 284 285 288 286 283 283 287 286 288 287 287 287 289 288 289 290 289 290 290 291 291 290 290 290 290 290 289
294 294 294 294 293 293 292 292 291 291 291 292 292 291 290 289 289 289 289 289 289 289 282 283 284 283 286 285 285 284 282 281 286 286 288 288 288 289 290 290 291 291 290 290 290 289 289 289 290 290 289 290 290 290
294 293 293 293 292 292 292 291 291 291 291 291 290 290 286 288 288 289 288 287 284 286 287 284 285 285 285 286 285 284 283 287 284 289 288 290 290 290 290 290 290 289 289 289 289 289 288 289 288 288 289 290 291 291
293 293 293 292 292 291 291 291 291 291 290 289 288 285 288 288 288 283 277 279 279 279 285 286 285 285 286 284 285 286 281 284 287 287 291 289 291 292 290 289 288 287 288 288 288 288 288 289 289 289 289 289 290 291
292 292 292 291 291 291 291 290 289 289 289 289 288 288 288 282 276 278 274 280 281 285 285 283 282 284 283 286 283 286 286 287 284 285 288 290 292 289 286 286 286 287 287 287 287 287 287 288 288 289 289 289 289 291
292 291 291 291 291 291 291 289 287 288 288 287 286 277 278 275 278 276 276 276 278 280 279 279 282 280 281 283 281 285 282 285 289 288 288 289 288 286 286 286 286 285 285 286 286 287 287 287 288 290 289 290 290 290
290 290 290 290 290 290 290 289 288 288 288 278 275 279 276 273 274 278 279 280 282 282 282 280 281 281 278 281 281 282 286 288 285 286 291 288 286 285 285 285 285 285 285 285 287 286 286 287 290 292 291 291 291 290
289 289 289 289 289 289 290 290 288 288 288 277 276 278 276 279 274 274 274 278 282 281 281 280 280 282 280 281 279 284 285 286 288 291 288 286 285 285 284 284 284 284 285 286 286 286 286 288 289 290 291 292 292 292
289 288 289 289 289 289 289 289 288 288 286 283 283 279 281 278 276 276 274 277 280 281 282 280 275 276 280 279 283 282 284 284 289 287 285 284 284 284 283 283 283 284 285 286 286 286 286 287 288 287 288 290 292 293
288 288 289 289 288 289 289 288 286 286 283 285 284 284 280 279 280 278 276 277 282 280 279 277 279 280 276 281 282 285 285 286 284 283 283 283 283 282 282 283 284 284 285 286 286 285 285 286 288 288 287 287 288 289
288 288 289 289 288 288 287 286 286 287 282 275 283 278 285 278 277 276 274 274 280 278 276 280 277 279 277 278 284 283 281 282 282 282 282 282 282 282 282 282 283 284 286 285 285 285 286 286 287 287 287 287 287 287
288 289 288 288 287 287 284 283 283 281 280 283 280 279 279 278 277 279 277 281 282 281 280 276 280 279 282 282 280 278 278 279 280 280 281 281 281 281 281 282 283 284 285 285 284 285 285 285 285 286 286 286 286 285
289 289 288 287 287 287 275 277 281 283 278 277 274 273 276 277 279 281 281 282 281 275 279 278 279 280 279 277 279 278 278 278 279 279 280 280 280 281 282 283 283 283 284 284 283 284 283 283 284 285 284 284 283 283
287 286 286 286 286 284 277 274 279 282 281 275 277 273 273 279 282 282 282 282 283 281 277 275 276 276 277 278 277 277 277 278 278 279 279 280 281 281 282 281 281 283 283 283 283 282 282 281 281 282 282 281 281 281
286 286 286 285 283 279 273 275 273 274 271 272 271 269 267 270 273 277 274 274 274 274 276 278 276 275 276 275 276 277 277 278 279 279 280 280 280 280 281 280 281 282 281 281 282 282 281 281 280 280 279 279 279 278
285 286 285 284 278 276 274 274 273 269 274 270 266 270 268 272 273 275 276 275 276 277 279 278 277 276 275 276 277 278 278 278 279 279 279 279 279 280 279 280 280 281 281 280 280 281 281 280 280 279 279 278 278 278
285 281 276 275 274 275 267 269 266 268 266 269 268 270 270 273 276 276 277 278 278 279 277 276 276 275 276 276 277 277 277 278 278 278 278 278 278 280 279 279 280 280 279 279 279 279 279 279 279 278 278 278 277 277
281 279 274 275 267 272 271 269 265 269 271 267 269 269 275 277 279 278 280 279 278 277 276 275 275 275 275 275 276 276 277 277 278 277 278 277 278 280 279 279 279 279 279 279 278 278 278 278 278 277 277 277 277 277
278 272 275 271 270 275 272 274 269 270 269 269 268 269 273 277 278 281 280 277 276 276 275 274 274 274 275 275 275 276 276 277 278 277 277 276 277 279 279 279 279 278 279 279 279 279 278 279 278 278 279 278 277 276
278 274 270 276 276 274 273 273 274 271 269 270 267 270 275 277 277 279 277 275 274 274 273 273 273 273 274 275 275 275 276 277 278 277 277 276 277 278 278 277 277 277 278 278 278 277 276 276 275 275 275 274 275 275
271 271 275 272 271 269 270 269 268 269 269 271 272 270 273 275 278 275 274 274 273 273 273 274 274 274 274 274 275 277 278 279 280 279 278 277 277 277 278 278 278 278 278 278 277 276 276 276 275 275 274 274 274 274
271 271 271 268 268 269 267 269 269 271 273 270 271 273 274 273 273 274 274 273 273 273 272 273 273 274 274 276 277 277 279 279 279 278 278 278 277 277 277 277 276 277 277 277 277 278 278 277 276 275 275 275 275 275
269 267 269 263 269 271 268 266 266 263 269 269 271 271 271 272 274 273 273 273 272 272 272 273 273 273 273 273 275 277 276 277 278 278 278 276 275 276 277 277 277 277 277 277 277 276 276 276 275 275 275 275 275 274
269 266 267 267 268 265 263 264 266 269 267 263 267 268 270 272 274 273 272 272 272 273 272 272 273 273 273 273 274 275 276 276 276 277 277 277 277 277 277 277 277 277 277 277 276 276 276 276 275 275 274 274 273 274
266 264 266 270 267 262 262 261 260 263 262 264 269 268 271 272 274 272 272 272 272 271 272 271 271 273 275 276 276 276 276 276 277 277 277 277 277 277 277 277 277 278 278 278 277 277 277 276 275 275 274 274 274 274
260 260 260 262 264 264 262 262 263 264 263 265 267 268 270 272 273 272 271 271 271 271 271 272 275 276 277 278 277 277 277 277 277 277 277 277 277 277 277 277 277 278 278 277 276 276 276 276 275 275 274 274 274 274

GFSWCAN_925_thetae_210.txt.gz
Theta_e
301 301 300 300 298 297 297 297 296 296 296 296 295 295 295 292 291 291 292 294 293 291 291 291 291 291 291 290 291 290 290 290 290 291 293 293 293 291 293 292 296 297 298 298 300 301 299 292 295 298 294 293 294 293
300 299 300 299 298 297 296 296 296 296 296 296 295 294 293 293 291 291 291 292 292 293 293 292 292 292 292 291 290 289 289 290 290 288 289 290 292 288 288 292 288 293 291 292 295 297 290 289 290 289 289 291 292 293
300 299 298 298 297 297 298 297 297 296 296 295 294 294 294 294 292 291 292 293 291 290 291 291 291 292 291 292 291 290 288 288 289 287 287 288 288 288 287 288 289 289 288 289 289 289 288 289 289 288 288 289 290 291
299 299 299 298 296 296 297 297 296 296 295 295 294 294 294 293 291 291 292 292 291 289 289 290 290 290 290 291 290 290 289 289 288 286 286 285 288 287 285 286 286 287 287 287 287 287 286 286 286 288 288 289 288 289
299 298 297 297 297 297 297 297 296 295 295 294 294 294 294 291 291 290 291 291 291 290 291 289 288 289 289 289 290 291 290 288 285 282 280 285 287 287 285 286 286 286 287 286 286 287 286 287 287 288 288 288 288 288
297 297 298 298 298 297 297 296 295 295 295 294 294 293 293 291 290 291 290 289 290 290 284 286 287 289 289 289 289 289 288 287 287 284 284 286 287 286 284 285 286 285 285 286 287 287 287 287 288 288 288 288 288 287
298 298 297 296 296 296 296 295 295 294 293 292 292 292 292 291 291 290 290 289 290 289 282 281 287 287 288 288 287 286 287 287 286 287 288 287 287 288 282 289 287 287 287 287 287 288 288 289 289 289 287 289 290 289
297 297 296 296 296 295 294 294 293 292 292 292 292 292 291 290 290 289 290 290 289 288 281 277 283 285 287 283 284 286 285 282 282 286 286 287 286 286 285 287 287 287 288 289 289 288 288 288 288 288 289 289 289 289
294 294 295 295 295 294 293 293 292 292 292 292 292 291 289 289 289 289 289 289 289 287 280 281 283 282 285 285 284 283 281 280 285 285 288 288 288 286 288 288 289 289 288 289 288 288 288 288 288 288 288 288 288 289
294 295 295 294 293 293 292 292 292 292 292 292 290 288 287 288 289 288 287 284 282 286 286 283 284 284 285 285 285 284 282 286 283 287 287 289 289 289 290 289 288 288 288 287 287 287 287 288 288 287 287 288 288 288
293 293 293 293 292 292 292 292 292 292 290 289 286 285 288 288 288 279 275 278 275 278 284 285 284 284 285 284 285 285 279 281 284 286 290 289 291 289 289 287 286 286 286 286 286 287 287 287 287 287 287 288 288 288
293 293 292 292 292 292 291 291 290 288 288 288 287 287 287 279 274 277 271 278 280 284 285 283 281 283 282 285 283 284 284 286 282 282 285 288 289 287 285 284 285 285 285 285 285 285 286 286 286 287 288 288 288 289
292 292 291 291 291 291 290 288 287 288 287 287 283 275 276 273 277 275 276 275 277 278 277 278 280 279 279 277 279 285 280 283 287 286 286 286 287 285 284 284 284 284 284 284 284 285 285 287 286 287 288 289 288 288
291 291 291 291 291 290 289 289 288 287 286 277 273 278 273 272 273 276 277 278 281 281 281 279 280 281 276 280 278 283 283 285 283 280 286 287 285 284 284 284 283 283 283 283 284 285 286 286 286 287 290 290 289 288
290 290 290 290 290 290 289 289 287 287 286 276 274 277 277 277 271 271 271 277 281 280 280 279 279 281 278 278 278 282 281 283 282 287 286 285 284 283 283 283 283 282 283 283 284 285 286 286 286 287 288 290 290 290
289 289 289 289 289 290 290 288 288 287 285 275 274 278 279 277 274 274 272 276 279 280 282 280 275 274 278 277 281 279 282 283 287 284 284 283 282 282 282 282 282 282 283 283 284 285 286 286 286 287 287 288 290 291
286 288 289 289 289 289 289 288 286 283 276 277 278 282 278 282 280 276 274 275 279 280 282 278 278 279 273 279 279 282 285 284 281 282 282 281 281 281 281 281 282 282 282 283 284 285 285 285 286 286 287 288 288 288
288 289 289 288 288 288 287 284 285 286 279 276 283 278 282 278 275 274 272 271 279 277 276 279 276 278 278 273 280 281 278 278 280 279 280 280 280 280 281 280 281 281 283 283 284 284 285 285 286 286 286 287 287 287
289 289 288 287 287 287 281 282 282 280 279 282 283 280 282 278 275 276 274 278 279 280 279 276 279 275 279 278 277 277 278 278 279 278 279 279 279 279 280 280 281 282 282 282 284 284 284 284 284 285 285 285 285 285
289 288 287 287 287 286 274 277 281 283 279 277 274 273 274 275 277 282 281 282 283 279 278 279 278 278 276 274 278 279 278 277 277 278 279 279 279 279 280 280 281 281 281 283 283 284 282 283 282 284 284 283 283 282
287 286 286 286 285 283 274 274 278 280 281 273 274 272 272 275 281 281 281 278 281 275 273 273 274 277 278 278 277 277 275 275 276 277 278 278 280 280 279 280 280 280 282 282 282 281 281 281 280 281 281 281 281 281
286 285 285 285 281 277 271 274 273 273 270 270 270 269 265 268 269 273 272 273 273 273 276 276 275 272 275 275 275 275 275 276 277 277 278 278 279 279 279 280 280 280 281 281 281 282 281 280 280 279 279 279 278 278
285 285 284 282 274 274 273 272 272 268 274 270 264 269 267 269 271 274 276 274 275 275 277 277 277 276 274 275 276 276 277 277 277 277 277 278 278 278 279 279 279 280 280 280 280 280 280 280 280 279 279 278 278 278
284 281 274 272 272 275 268 268 265 267 265 267 266 271 269 268 276 275 277 277 277 278 277 276 275 275 275 275 276 276 276 276 277 277 277 278 277 278 279 279 279 279 279 279 279 279 279 279 278 278 278 278 278 277
279 276 274 274 267 272 270 268 265 269 271 265 269 268 270 274 277 276 278 278 278 278 277 275 274 275 274 275 275 275 275 276 276 277 277 277 277 278 279 279 278 279 279 278 278 278 278 278 278 278 278 277 277 277
278 271 274 270 269 274 271 274 269 270 267 268 267 266 267 275 277 278 280 277 277 276 275 274 274 274 274 274 274 275 275 276 276 277 277 276 277 278 278 278 278 278 279 279 279 279 279 279 279 279 279 279 278 276
277 274 269 275 276 274 273 272 272 270 268 270 267 268 272 276 276 279 277 275 275 274 273 273 273 273 273 274 274 275 276 276 277 277 277 277 277 277 277 277 277 277 278 278 277 277 276 276 275 275 275 275 275 275
273 271 275 270 271 267 270 268 267 269 268 270 271 270 271 273 278 276 274 274 273 273 273 273 273 273 273 274 275 276 277 279 279 278 278 277 277 277 278 278 278 278 278 278 277 277 276 275 275 275 274 274 274 274
270 270 271 268 266 267 267 269 269 270 272 269 270 272 274 274 273 273 274 273 273 273 272 272 273 274 274 276 277 276 277 278 278 278 278 277 277 276 277 276 276 277 277 277 277 277 277 276 276 275 274 274 274 275
269 267 268 263 269 271 267 266 265 263 267 268 270 270 271 271 273 273 273 273 272 271 272 272 273 273 273 273 274 276 276 277 278 278 277 276 275 276 277 277 277 277 277 277 277 276 275 275 275 275 275 275 275 275
268 265 267 266 268 264 262 263 264 268 264 261 264 268 269 271 273 272 272 272 272 272 272 272 273 273 273 273 273 275 276 276 276 277 277 276 277 277 277 277 277 277 276 275 275 275 275 275 275 274 274 274 273 274
266 263 266 271 267 261 261 260 259 262 261 263 266 266 269 272 272 272 272 271 272 271 272 271 271 273 275 276 276 276 276 276 277 277 277 277 277 277 277 277 277 277 277 277 277 277 277 276 275 274 274 274 274 274
259 259 259 261 264 264 262 262 263 263 263 264 266 266 267 271 272 271 271 271 271 271 271 272 275 276 277 277 278 278 277 277 277 277 277 277 277 277 277 277 277 277 277 277 276 276 276 275 275 274 274 274 274 274

GFSWCAN_925_thetae_213.txt.gz
Theta_e
308 309 308 306 302 300 298 297 296 296 295 296 296 297 298 298 299 297 295 294 293 291 291 291 291 291 291 291 293 291 292 291 292 293 295 295 295 292 292 292 296 296 297 298 300 302 301 289 292 296 290 289 289 291
303 302 301 300 299 298 297 296 296 296 295 296 296 295 295 293 293 293 292 293 292 292 292 292 292 291 291 291 290 289 291 290 291 291 290 290 292 288 288 292 288 292 293 294 295 296 288 289 288 288 287 288 289 288
299 298 298 297 297 297 296 296 296 296 296 295 295 295 295 293 291 291 292 292 291 291 291 290 290 291 291 291 290 290 288 288 289 287 287 288 288 288 288 288 288 288 287 287 287 288 288 287 287 287 288 287 287 288
300 299 299 297 297 297 297 296 296 296 295 295 295 295 294 292 291 291 292 291 290 290 290 289 289 289 290 291 290 289 289 288 287 286 285 285 288 287 284 286 286 286 287 286 286 285 284 285 286 287 287 287 287 287
299 298 298 297 298 297 297 297 296 295 295 295 295 294 292 291 291 290 290 290 290 290 292 289 288 289 289 289 290 290 290 287 285 283 280 285 287 286 284 285 285 285 286 286 286 285 284 285 286 286 286 287 287 287
298 298 297 298 297 297 297 296 295 295 295 294 294 293 292 289 289 289 289 289 290 289 285 288 287 288 288 288 288 287 288 286 286 284 283 286 286 286 283 284 285 285 285 285 285 285 285 286 285 286 287 288 288 287
298 297 297 297 297 297 296 295 295 295 294 294 293 293 290 290 290 290 290 290 289 289 284 284 288 286 287 287 286 285 286 286 286 286 285 286 287 288 281 288 285 285 285 285 285 285 286 288 288 287 287 288 288 288
298 298 298 298 297 296 296 295 294 293 293 293 292 292 291 289 289 289 290 289 289 286 281 279 284 285 286 283 283 285 284 281 282 285 287 287 286 284 284 286 285 286 287 287 287 287 287 287 287 287 287 287 287 287
298 297 296 296 296 295 294 293 293 292 292 292 291 289 288 288 288 290 289 288 288 287 281 282 282 282 285 284 283 282 281 280 285 284 287 288 287 286 287 287 288 287 286 286 286 286 286 286 286 286 286 286 287 287
296 296 295 295 294 294 293 293 292 292 293 291 289 288 287 288 289 288 287 282 281 277 278 283 283 284 284 285 284 283 281 286 282 286 288 288 288 288 289 289 286 285 285 285 285 286 286 286 286 286 286 286 286 286
295 295 295 294 294 293 292 292 292 292 290 288 285 287 288 288 287 278 276 278 274 277 284 284 284 284 284 283 284 285 278 280 283 285 289 288 290 284 282 283 284 283 284 284 285 285 285 285 285 286 286 286 286 286
294 294 293 293 292 292 292 292 291 289 288 287 287 287 286 278 273 276 271 276 280 283 284 282 280 282 281 284 284 284 284 283 282 281 284 285 287 286 284 282 282 283 283 283 283 284 284 284 284 285 286 286 287 287
293 292 292 292 292 292 291 290 288 288 287 286 282 273 275 271 276 274 276 274 277 278 277 277 279 277 278 277 279 285 282 283 285 285 286 281 285 283 279 280 283 283 283 283 283 283 284 284 284 285 286 286 287 288
292 292 292 291 291 290 290 289 287 286 285 276 273 276 272 272 272 275 276 277 280 280 280 278 279 280 275 279 278 284 282 283 281 278 282 283 281 282 282 282 282 282 282 282 283 283 283 284 285 286 286 287 289 288
291 291 291 290 290 290 289 287 286 286 284 276 273 276 273 276 270 269 269 276 280 279 279 278 278 280 278 277 277 280 279 279 279 281 285 283 282 282 281 282 282 282 281 282 282 282 283 284 285 285 286 287 288 288
290 290 290 290 290 290 287 287 287 286 282 273 272 275 279 276 273 273 271 275 279 279 281 278 274 274 277 278 279 278 278 277 283 284 284 282 281 281 281 281 281 281 281 281 281 282 283 284 285 285 286 288 288 289
288 289 289 289 290 288 287 287 286 276 274 273 274 279 277 279 275 274 273 273 277 279 278 277 278 279 271 276 278 278 278 280 279 281 281 279 279 279 279 280 281 280 280 281 282 282 283 284 284 286 286 287 288 288
289 289 289 289 289 288 286 284 284 277 280 274 282 278 281 277 275 274 270 270 277 274 275 279 275 276 278 278 278 279 276 275 278 278 279 278 278 278 279 279 279 280 280 281 281 281 283 284 284 285 286 286 287 286
289 289 288 288 287 287 281 282 281 277 279 278 283 281 282 282 277 275 275 277 278 280 280 278 279 275 278 276 275 274 274 274 278 278 277 277 277 277 278 278 279 280 280 280 281 283 283 283 283 284 284 285 284 284
288 287 286 286 287 285 274 276 281 283 281 276 275 273 274 275 275 281 281 281 282 278 278 280 278 277 274 272 277 278 278 277 276 276 277 277 278 277 278 279 279 279 280 280 282 283 282 281 282 283 283 283 282 281
286 285 285 285 285 282 273 275 277 279 280 273 272 271 272 270 277 279 276 275 276 272 272 272 272 273 277 277 277 276 275 275 274 275 276 276 278 279 278 278 279 279 280 281 281 282 281 280 280 280 281 281 281 280
285 285 285 284 280 276 269 273 274 272 270 269 268 266 264 268 267 269 270 273 271 271 274 273 272 271 274 272 274 274 274 274 274 275 277 277 277 277 278 278 279 279 280 280 280 281 280 280 279 279 279 278 278 278
285 285 283 281 274 272 273 271 272 267 273 270 263 269 267 264 267 272 274 273 273 275 276 276 276 275 274 274 275 275 275 275 275 276 276 276 277 277 277 278 279 279 279 279 279 279 280 280 280 278 279 278 278 277
284 279 272 269 268 273 266 267 264 266 264 267 266 271 269 265 271 273 276 275 276 277 277 276 275 275 275 275 275 275 275 275 275 276 276 277 277 277 277 278 279 279 279 279 279 279 279 279 278 278 278 278 277 277
278 275 272 273 265 271 269 268 266 269 271 264 268 269 269 269 275 274 277 278 278 278 277 275 275 274 274 274 274 275 275 275 275 276 276 277 277 277 278 279 278 278 278 278 278 278 278 278 278 278 277 277 277 277
277 270 274 273 268 274 270 274 269 270 267 268 266 264 265 272 275 277 280 277 277 276 275 274 274 273 274 274 274 274 275 275 275 276 277 277 276 277 278 278 278 277 278 278 278 278 278 279 279 279 279 279 278 276
277 274 269 274 275 273 273 272 271 269 268 270 267 267 268 273 276 279 277 275 275 274 273 273 273 273 273 273 274 274 275 276 276 277 277 277 276 277 277 277 277 277 278 278 277 277 276 276 276 276 276 275 275 275
272 271 274 269 269 266 269 267 267 269 268 269 270 269 271 276 278 276 274 274 273 273 273 273 273 273 273 273 275 275 276 278 278 278 278 276 276 276 277 278 277 277 277 277 277 276 276 275 275 274 274 273 273 274
269 270 270 268 265 266 266 269 268 269 271 268 270 272 272 275 273 273 273 273 273 272 272 272 273 273 274 275 276 276 277 277 278 278 277 276 276 275 276 276 277 277 278 277 277 277 277 276 275 275 274 274 274 275
269 267 268 262 269 271 266 265 265 263 267 267 269 269 272 272 273 272 272 272 271 271 272 272 272 273 273 273 274 276 276 276 276 277 277 275 274 276 277 277 277 277 277 277 277 276 275 275 275 275 275 274 274 274
268 265 267 266 267 264 262 262 263 267 264 261 263 267 270 269 273 272 272 272 272 272 272 272 272 273 272 273 273 275 276 276 276 276 276 276 277 277 277 277 276 276 276 275 275 275 275 275 274 274 274 273 273 274
265 263 266 271 267 261 260 259 259 261 261 262 266 265 267 269 271 271 271 271 271 271 272 271 271 273 275 276 276 276 276 276 276 276 277 277 277 277 277 277 276 277 277 276 276 276 276 275 274 274 274 273 274 273
258 258 258 261 263 264 261 261 262 262 262 263 266 265 265 269 270 271 271 271 270 270 270 272 274 275 276 277 278 278 278 278 278 277 276 277 277 277 277 277 277 277 278 277 276 276 276 276 275 274 274 274 273 273

GFSWCAN_925_thetae_219.txt.gz
Theta_e
300 299 300 300 303 306 307 308 308 309 308 307 307 306 304 300 300 299 295 296 294 293 291 291 291 292 291 293 294 292 295 293 295 297 298 296 297 294 293 294 296 298 299 299 300 302 301 285 287 294 287 286 286 286
300 299 300 304 306 307 308 308 308 306 305 304 303 303 302 300 298 298 293 294 292 292 291 291 291 290 290 291 290 289 293 291 294 295 292 291 292 288 290 292 289 294 294 295 296 295 286 286 286 286 285 286 286 286
301 303 305 307 308 308 306 304 302 301 300 299 298 298 299 298 296 296 293 293 292 290 289 289 289 289 290 290 290 290 289 289 289 287 289 289 289 288 287 288 288 287 286 288 289 287 287 286 286 285 285 286 286 286
305 306 305 302 300 300 299 298 297 297 297 297 298 298 298 297 296 295 294 292 291 291 291 289 288 288 288 290 289 290 288 287 287 287 288 287 290 287 284 286 286 286 285 285 285 284 284 283 285 285 285 285 285 285
299 299 299 298 298 297 297 296 296 296 296 296 295 296 296 295 292 292 291 290 290 291 291 288 288 287 289 289 289 289 288 288 287 287 286 289 287 286 283 284 284 283 285 285 284 283 283 283 284 284 283 284 284 284
299 298 297 297 297 296 296 296 296 296 296 296 296 296 294 291 291 291 288 289 290 290 288 290 287 286 287 288 287 287 287 287 286 287 287 286 285 285 283 284 285 283 283 283 284 284 283 283 283 284 284 284 284 285
298 298 298 298 297 296 296 297 296 295 294 294 293 293 291 290 290 290 290 289 288 288 286 286 288 285 286 287 286 286 286 286 287 287 287 286 286 286 281 283 284 284 283 283 282 284 285 285 285 284 284 285 285 285
298 298 297 297 296 296 296 296 295 294 294 293 293 291 290 289 288 288 287 288 287 286 284 283 286 287 285 285 285 284 285 283 284 286 286 286 285 283 282 284 284 285 285 285 285 284 284 283 283 283 284 284 284 284
298 297 297 297 296 296 295 295 295 293 293 292 290 289 288 289 290 289 287 287 287 287 285 285 287 287 284 284 284 284 283 282 284 282 285 286 284 285 285 285 286 285 284 283 283 283 282 282 282 283 283 283 283 284
298 298 297 296 296 295 295 294 293 292 291 288 288 288 288 288 288 287 286 284 282 280 280 285 284 286 284 284 284 283 281 285 278 285 286 287 286 286 286 285 284 280 281 280 280 282 283 283 283 282 283 283 283 283
297 297 296 296 295 294 294 294 292 290 289 288 286 287 286 286 285 279 276 280 278 280 284 283 282 283 283 282 282 284 277 279 278 282 286 286 287 280 279 280 280 280 280 279 279 281 281 282 281 282 282 283 283 283
297 295 294 294 294 294 294 293 290 288 287 287 286 286 284 277 274 277 273 277 280 283 282 281 279 279 280 282 280 283 280 281 278 279 281 283 282 284 281 279 280 280 279 279 280 279 280 281 281 281 282 282 282 283
294 294 294 294 294 294 292 291 289 287 287 285 280 273 276 271 276 273 276 273 276 277 276 277 277 276 276 275 276 282 279 280 282 280 281 280 282 282 278 278 279 280 279 278 279 280 280 280 281 281 281 282 282 282
294 294 294 294 293 292 290 288 287 285 285 276 273 276 272 271 272 273 275 276 278 279 278 276 277 277 277 277 275 282 280 281 277 275 277 280 281 280 279 279 278 278 278 278 279 279 280 280 280 281 281 282 282 283
293 292 292 292 291 290 288 286 286 286 282 273 272 276 271 273 269 267 266 273 278 277 278 277 276 278 276 274 274 278 275 275 276 277 278 281 281 280 279 279 278 278 278 277 278 279 279 280 280 281 281 282 283 284
291 291 291 290 289 287 286 286 286 285 276 271 270 273 278 275 273 271 272 274 277 277 279 276 271 272 273 274 275 275 274 275 278 276 280 278 279 278 278 278 278 278 277 278 277 278 279 280 280 281 281 282 284 285
289 290 289 288 286 286 286 286 285 270 271 271 273 277 274 273 273 273 270 272 274 276 276 272 276 277 272 272 274 275 275 277 277 278 278 277 277 277 277 277 277 278 277 277 277 278 279 279 280 281 283 283 284 284
290 289 287 287 286 286 285 283 274 271 279 273 278 278 278 274 277 278 272 271 274 270 272 276 272 272 274 274 276 277 274 273 275 276 277 276 275 276 276 277 277 277 276 277 278 278 279 280 281 282 282 283 283 283
288 288 288 287 286 285 277 280 277 276 279 279 282 280 282 281 278 276 275 276 277 278 276 273 274 275 277 274 273 272 271 272 275 276 276 275 275 275 275 275 275 276 277 277 277 279 279 281 281 280 281 282 282 282
286 286 286 286 286 283 272 274 280 277 280 275 274 272 273 274 273 280 280 279 279 272 275 275 276 276 275 274 277 277 276 275 273 274 275 275 276 275 275 275 276 276 276 277 278 280 281 280 279 280 281 281 280 280
285 285 285 285 283 279 270 272 272 275 278 271 266 269 270 267 273 275 269 273 273 267 272 273 274 276 276 276 276 275 274 273 273 273 273 274 274 275 276 276 275 276 277 278 279 280 280 280 279 279 279 278 279 280
285 284 284 284 277 272 268 270 271 270 269 266 265 264 265 267 265 266 267 269 266 270 269 271 271 271 274 272 273 274 273 272 272 272 274 275 274 275 275 275 275 276 277 277 279 279 279 280 279 279 278 278 278 277
284 283 282 279 274 272 270 268 270 266 273 269 261 268 265 262 264 268 268 266 269 272 275 276 276 276 275 275 274 274 274 274 273 273 274 274 274 274 274 275 276 276 276 278 278 279 279 279 279 277 277 276 276 276
282 276 269 267 267 272 265 265 263 264 263 265 265 271 267 263 265 268 270 273 276 277 277 277 276 275 275 275 275 274 274 274 274 273 274 274 274 274 275 276 276 277 277 278 278 278 279 279 278 277 277 276 276 276
277 274 271 271 263 271 268 268 266 269 270 262 268 269 267 264 268 269 275 276 277 278 276 275 275 274 274 274 274 274 274 274 273 273 274 274 274 275 276 276 278 278 278 278 278 278 277 277 277 277 277 277 277 277
275 269 272 273 269 273 269 273 269 269 266 268 265 263 261 266 270 276 277 275 276 276 275 274 273 273 273 274 273 273 274 274 274 274 274 276 276 276 276 276 277 277 278 278 278 277 277 277 278 278 279 279 278 276
274 272 269 274 273 271 271 270 270 268 268 272 266 265 265 271 273 277 276 274 274 274 273 272 272 272 273 273 273 274 274 275 275 275 277 276 276 276 276 277 277 277 278 278 278 277 277 276 276 276 276 275 275 275
268 269 273 268 266 264 267 265 267 269 268 268 269 269 271 273 278 275 274 273 272 272 272 273 273 273 273 273 274 275 275 276 277 277 277 276 276 276 277 277 277 277 277 277 277 276 276 276 275 275 274 274 274 274
268 269 269 267 265 264 266 268 268 268 270 268 270 271 270 274 273 272 273 272 272 271 271 272 272 273 274 275 276 275 275 275 276 276 276 275 275 275 276 276 276 276 276 276 276 276 276 275 275 274 273 273 273 273
268 267 268 262 269 271 266 264 263 263 266 268 268 270 271 272 272 272 272 271 270 270 271 272 272 272 273 273 273 275 275 275 275 274 275 274 274 274 276 276 277 277 278 278 278 277 276 275 275 275 274 274 273 273
267 265 266 265 267 263 261 261 261 266 263 261 263 267 268 270 272 272 271 271 271 271 271 272 272 273 272 272 273 274 276 275 275 275 275 275 275 276 276 276 276 276 275 275 275 275 274 274 274 273 273 273 273 273
264 261 265 271 267 260 259 257 257 260 260 262 264 262 265 268 272 272 271 271 270 270 271 271 270 272 274 275 277 277 277 277 276 276 276 276 276 276 276 276 276 276 276 276 275 275 275 274 273 273 273 273 273 273
257 257 257 260 263 264 260 261 262 262 261 263 264 263 263 267 270 271 271 270 269 270 270 271 274 275 275 276 277 278 278 278 279 278 277 276 276 276 276 276 276 276 277 276 276 276 275 275 274 274 274 273 273 273

GFSWCAN_925_thetae_222.txt.gz
Theta_e
299 299 299 299 300 300 300 302 301 303 305 306 307 307 307 307 303 300 296 298 298 296 293 292 295 298 297 299 300 296 297 296 298 301 302 300 299 298 297 296 299 300 300 301 301 304 304 288 290 296 291 289 289 288
299 299 299 299 299 300 301 301 303 306 307 307 308 306 304 299 300 301 294 294 295 294 294 291 290 290 290 293 295 293 296 296 298 300 298 296 296 294 295 296 291 298 298 299 299 297 288 288 289 288 288 290 289 288
299 299 299 299 298 300 301 304 306 307 307 307 307 306 300 299 300 299 293 292 291 292 292 292 291 289 290 290 290 297 294 292 292 291 294 294 295 293 294 293 292 290 288 294 293 290 288 288 288 288 288 288 288 288
298 297 297 300 303 305 305 307 307 307 307 306 306 302 297 296 298 299 293 292 291 293 293 291 288 288 288 289 289 290 290 289 289 291 293 293 294 291 292 290 291 290 288 290 290 288 287 286 287 288 288 288 288 288
301 304 304 304 303 302 302 301 300 300 300 300 299 298 296 295 295 294 293 293 291 294 293 290 288 287 288 288 289 289 290 291 291 292 293 292 290 289 287 288 289 287 290 290 290 288 288 288 288 287 287 288 288 287
300 300 300 299 298 298 297 297 296 296 296 296 295 295 295 294 293 291 291 289 290 290 292 292 288 287 287 287 288 288 289 289 289 291 291 289 287 289 290 288 288 287 286 286 288 286 286 287 287 288 287 287 287 287
299 298 297 297 297 297 297 297 297 297 297 296 295 294 292 290 290 291 291 289 289 289 292 290 290 287 286 287 287 288 287 288 289 289 289 288 288 289 288 288 287 286 286 286 286 285 287 288 288 287 286 286 286 285
298 298 297 297 298 296 296 296 295 295 294 294 293 292 290 290 288 289 287 288 287 287 290 290 289 288 285 288 289 286 288 288 288 289 288 288 287 288 289 288 286 287 287 287 286 285 285 285 285 285 285 285 285 286
297 296 296 297 296 295 295 294 294 294 293 292 290 289 289 289 289 288 287 287 287 288 289 289 289 290 286 287 287 287 287 288 286 288 288 288 287 288 287 287 287 286 285 285 285 285 285 284 284 285 285 285 285 285
296 297 296 296 295 295 294 294 293 292 291 288 288 288 289 287 287 287 285 287 286 285 287 288 286 288 286 287 287 287 286 288 287 287 287 288 287 287 287 287 285 284 284 283 283 284 285 284 284 284 284 284 284 284
297 296 296 295 295 294 294 293 292 289 288 288 288 288 285 286 284 282 283 285 283 286 287 286 285 287 285 287 287 286 285 284 286 286 287 287 287 287 283 284 284 283 283 283 282 282 282 283 283 283 282 283 283 283
297 296 295 295 294 294 293 291 289 288 287 287 287 285 283 279 280 283 278 281 284 287 285 286 285 285 285 284 286 285 285 284 285 284 287 287 287 285 285 283 283 283 282 281 281 281 281 281 281 281 281 282 282 282
296 295 294 294 294 293 291 289 288 287 287 285 282 279 282 278 281 282 281 282 284 284 283 283 285 284 283 282 284 284 284 285 284 285 286 285 286 285 283 282 282 282 281 280 280 280 280 280 280 280 281 281 281 281
294 294 294 294 293 291 289 287 285 285 285 280 279 279 278 280 280 280 282 283 282 283 283 283 283 285 281 282 280 284 282 282 284 283 285 286 285 284 283 282 281 281 280 279 279 279 279 279 279 279 280 281 281 282
294 293 292 292 291 289 287 286 286 286 281 278 278 279 279 277 274 274 273 278 280 281 283 283 282 283 281 281 279 281 281 282 282 284 284 285 283 282 281 281 280 280 279 278 278 278 278 278 278 279 280 281 281 282
291 291 291 290 288 286 286 285 286 284 275 277 276 279 279 282 281 278 278 282 280 281 281 281 280 281 282 281 281 283 281 282 284 282 283 282 281 281 280 279 279 278 278 278 278 277 277 277 278 280 280 280 281 283
289 289 289 287 286 286 285 286 284 273 276 277 280 280 279 279 281 279 278 279 276 283 284 281 281 282 276 280 280 279 282 283 282 282 281 280 280 279 278 278 277 278 277 277 277 276 277 278 278 279 281 282 282 283
288 288 286 286 285 286 285 282 275 275 279 278 282 282 280 279 282 281 277 276 280 280 279 283 276 279 281 280 282 281 280 279 279 279 279 279 278 277 277 277 277 277 277 276 276 277 277 278 280 281 282 281 282 283
288 287 287 286 286 285 278 278 277 277 280 281 282 280 282 281 278 277 278 277 278 278 278 278 280 282 283 279 279 279 278 277 278 278 278 276 276 275 275 275 275 275 276 277 276 277 278 279 281 281 280 281 282 281
286 286 285 286 286 282 275 276 278 277 280 278 276 275 276 277 275 280 280 278 280 278 280 280 281 280 280 278 279 279 278 277 276 276 277 277 276 274 275 275 275 276 276 276 277 279 279 281 281 280 280 281 280 280
285 284 285 285 282 278 271 272 273 276 276 275 269 272 274 272 275 275 275 274 277 276 278 277 277 277 277 277 276 276 275 275 275 275 275 274 274 274 276 276 275 276 276 277 278 278 279 280 280 279 279 278 278 279
284 284 284 283 276 272 269 269 273 272 273 270 270 268 272 274 272 272 270 274 274 276 274 275 276 276 277 277 276 275 274 273 272 272 274 274 274 275 276 275 275 275 276 277 277 278 279 279 280 279 279 278 278 277
283 283 281 278 275 273 271 268 272 268 275 272 267 272 271 269 268 268 273 271 273 273 275 276 277 276 276 276 275 275 274 274 274 274 274 274 274 274 274 274 274 275 276 277 277 278 278 279 279 277 277 277 277 276
282 275 270 268 270 273 267 268 267 269 268 270 270 272 270 269 267 271 275 275 277 278 278 277 276 276 275 275 275 275 274 274 274 274 274 274 274 274 274 274 275 276 276 277 278 278 278 279 278 277 277 277 277 277
277 274 272 275 264 272 271 270 269 272 271 264 268 271 270 265 272 271 275 277 277 278 276 275 275 274 274 274 274 274 274 274 274 274 274 274 274 274 276 276 276 277 277 278 278 278 278 277 277 277 277 277 277 277
274 269 272 274 270 273 271 274 270 270 268 270 270 267 265 270 271 275 278 276 276 276 275 274 273 273 273 274 274 274 274 274 274 274 274 275 276 276 276 276 277 278 277 278 277 277 277 277 277 278 279 279 278 276
274 272 270 274 273 272 272 271 270 271 269 272 269 267 269 272 272 278 276 274 274 273 272 272 272 272 273 273 273 274 274 275 275 275 276 276 275 275 276 277 277 277 278 278 278 278 277 276 276 276 276 275 275 275
268 269 273 268 267 266 268 267 268 270 270 270 270 270 272 274 278 275 274 273 272 272 272 272 273 273 273 273 274 275 275 275 277 276 276 276 276 276 277 277 277 277 277 277 277 276 276 276 275 275 275 274 274 274
268 269 270 267 265 266 266 269 269 270 270 270 273 274 273 274 273 272 272 272 271 271 271 272 272 273 273 275 275 275 274 274 275 276 276 275 275 274 276 276 276 276 276 276 276 276 275 275 274 273 273 273 273 274
267 267 268 262 269 271 266 264 264 264 266 268 268 270 271 272 272 272 272 271 270 270 271 271 272 272 273 273 273 275 275 275 274 274 275 274 274 274 276 276 277 277 277 278 277 277 276 275 274 274 273 273 272 272
266 265 266 265 267 264 262 261 261 265 263 263 263 267 269 270 271 272 271 271 270 271 271 272 271 272 272 272 272 273 276 276 275 275 275 275 275 276 276 276 276 276 276 275 275 274 274 274 274 273 273 273 273 272
264 261 265 271 267 260 259 258 259 261 261 264 265 264 266 270 273 272 271 270 270 270 271 270 270 271 274 275 276 277 278 277 277 276 276 276 275 276 276 276 276 276 276 275 275 275 275 274 273 273 273 273 273 272
257 257 257 261 263 264 261 261 262 262 263 263 264 264 264 267 271 271 271 270 269 269 269 271 274 275 275 276 277 278 278 278 279 278 277 276 276 276 276 276 276 276 276 276 275 275 275 274 273 273 273 273 273 273

GFSWCAN_925_thetae_228.txt.gz
Theta_e
296 297 297 297 298 298 297 297 299 300 300 299 299 299 300 300 301 303 305 306 304 303 298 297 300 303 303 303 303 300 299 299 298 303 305 305 304 303 300 300 300 299 300 301 302 304 304 292 293 298 292 290 290 290
294 296 297 297 297 297 297 297 298 299 299 299 298 298 298 300 302 304 302 302 302 299 295 293 292 293 293 294 301 297 300 298 299 300 303 304 304 300 299 299 297 299 299 301 300 300 290 291 290 291 290 289 290 289
294 296 297 297 297 296 297 297 298 298 299 299 299 298 299 300 302 303 302 297 299 294 292 293 294 292 293 292 293 299 297 297 298 293 299 299 300 297 297 297 296 296 292 295 296 292 289 290 289 289 290 289 289 288
294 295 296 296 296 296 297 297 298 297 298 298 299 300 300 302 302 304 299 297 299 296 298 293 290 291 289 291 293 295 294 293 293 294 297 298 299 293 293 292 292 291 290 292 294 292 290 289 289 288 288 288 288 289
294 295 296 296 297 297 298 298 297 298 299 299 300 300 300 302 301 299 296 294 296 299 296 292 290 289 290 290 291 294 294 294 294 294 296 297 293 291 290 289 289 288 290 292 292 290 289 288 289 287 287 288 288 288
296 297 297 296 297 297 296 297 299 299 300 300 300 302 303 296 301 298 294 292 293 293 293 293 289 289 290 291 291 291 292 292 294 295 296 294 290 290 293 290 289 289 288 287 288 287 287 287 287 287 288 288 288 288
296 296 295 295 300 302 302 302 300 299 301 302 298 296 295 295 296 294 295 292 292 292 292 291 291 288 289 290 289 289 290 290 291 292 292 291 289 290 293 290 287 288 288 286 287 287 287 287 287 287 286 287 287 287
294 295 300 299 301 302 302 301 299 297 292 292 292 291 290 292 292 290 290 290 291 292 293 294 290 288 287 290 290 288 289 290 289 291 288 289 288 288 290 289 287 287 287 287 287 286 286 286 285 285 286 285 285 284
296 295 295 295 294 294 295 295 294 293 292 292 291 291 290 290 290 287 289 289 290 292 293 292 290 291 287 289 289 289 289 288 288 286 288 288 287 287 288 287 287 287 286 285 285 285 285 284 284 284 284 284 284 283
296 296 296 295 295 294 293 292 291 291 291 291 290 291 290 288 287 287 288 291 290 290 289 291 289 288 287 288 289 289 287 289 284 287 287 286 287 288 286 285 285 284 283 283 282 283 283 283 283 283 282 282 283 282
295 295 295 295 295 294 294 293 292 292 290 290 290 288 286 285 287 288 284 286 286 286 288 286 287 287 286 289 288 288 286 286 282 287 286 286 287 285 281 282 280 280 282 281 281 281 282 281 281 281 281 282 282 282
295 295 294 294 293 292 291 289 288 288 288 289 288 285 284 285 284 282 281 285 287 288 287 287 287 287 286 286 287 287 286 283 283 285 283 285 284 284 280 278 280 280 281 279 282 279 280 281 281 280 280 280 281 281
294 294 294 293 292 290 288 288 287 286 285 285 285 282 283 282 282 284 283 284 286 286 284 284 285 284 283 284 283 285 280 282 284 280 282 281 284 281 277 278 280 283 282 281 281 281 281 280 280 280 279 279 279 279
294 294 293 292 291 289 288 286 286 285 285 284 282 279 281 282 283 284 286 286 284 286 285 284 283 284 283 279 281 279 283 282 279 278 278 279 280 280 279 280 279 278 278 278 279 280 279 279 278 279 279 279 278 278
294 292 291 290 287 286 286 286 286 285 285 280 280 279 278 279 278 277 278 282 284 283 283 282 281 283 281 276 279 280 277 277 278 279 282 282 282 280 281 281 279 278 275 274 278 278 278 278 278 278 278 278 278 278
291 290 290 288 286 285 285 285 285 284 281 278 279 279 282 281 282 284 284 282 281 282 283 283 280 277 280 278 278 277 278 277 280 281 282 281 282 281 280 280 279 279 278 278 278 277 278 277 277 277 277 277 277 278
290 289 288 286 286 286 285 285 283 278 278 278 281 283 283 284 284 283 284 282 281 282 281 279 277 279 275 277 278 280 277 281 280 280 280 280 278 277 276 279 279 279 278 278 277 277 276 276 276 275 276 277 278 280
288 288 285 285 285 285 284 282 279 277 279 282 283 283 283 282 280 281 281 282 281 279 279 279 276 276 276 277 279 280 278 277 278 278 277 278 277 279 279 278 278 277 277 276 275 275 275 275 276 277 278 279 280 281
286 285 285 285 286 285 278 278 279 276 281 283 282 281 282 281 281 281 281 281 281 279 277 275 277 276 280 278 278 277 277 277 278 278 277 278 278 278 278 277 277 276 275 275 276 276 276 276 277 278 279 281 281 281
285 285 285 285 285 283 275 274 281 276 277 279 279 278 279 279 277 281 278 277 282 277 275 275 279 280 278 277 277 276 277 277 277 277 277 276 277 277 276 276 275 275 275 276 276 277 277 278 279 280 280 281 281 280
284 284 284 284 281 277 273 272 273 277 279 273 273 275 275 275 275 274 272 272 273 273 277 278 277 276 278 278 278 277 277 276 276 276 276 275 275 275 275 275 276 276 276 276 276 276 277 278 278 279 280 280 279 279
284 284 284 282 278 274 271 272 274 274 273 271 271 272 272 272 271 268 267 269 272 275 273 274 274 274 276 275 276 276 276 276 276 275 276 276 274 273 274 275 275 275 275 275 275 276 277 278 278 280 279 279 278 278
283 283 281 279 274 272 271 272 272 271 273 271 269 272 270 269 268 268 269 270 271 274 277 276 277 277 276 276 276 276 276 276 276 275 275 275 275 275 275 275 274 275 275 275 276 277 277 278 279 279 278 278 278 277
282 275 270 270 272 273 270 270 272 272 270 271 271 273 270 268 266 269 273 273 276 279 277 276 276 275 275 275 275 275 275 275 275 275 275 275 275 275 275 275 275 275 275 276 276 277 278 279 278 277 277 277 277 277
276 273 271 272 269 272 271 271 269 271 273 270 271 271 269 265 270 271 275 276 276 275 276 275 274 274 274 274 275 275 275 275 275 275 275 275 275 275 275 275 276 277 277 278 278 279 278 277 277 278 277 277 277 277
272 269 271 272 272 274 273 273 271 271 271 271 270 268 266 269 270 274 277 275 275 275 274 274 273 273 274 274 274 274 274 274 274 275 275 275 275 275 276 276 276 277 278 278 278 278 277 277 277 277 278 279 278 276
272 270 272 275 275 274 274 273 273 272 270 271 270 269 269 271 274 278 276 274 274 273 273 272 272 273 273 273 274 274 274 275 275 275 276 276 276 276 276 276 276 277 277 278 278 277 276 276 276 275 275 275 275 275
270 270 271 269 269 269 269 270 271 270 272 271 271 270 272 276 277 275 274 273 272 272 272 272 273 273 273 273 274 274 275 275 275 276 276 276 276 276 277 277 278 277 277 277 277 276 276 275 275 274 274 273 273 274
270 271 271 267 267 268 267 269 270 271 270 270 272 275 275 275 273 273 272 272 271 271 271 272 272 273 273 274 275 275 275 274 274 275 275 275 275 275 276 277 277 277 277 276 276 276 275 274 274 273 273 273 273 273
268 268 269 265 268 270 266 265 266 266 268 269 269 271 272 273 273 272 271 271 270 270 271 271 272 272 273 273 273 274 276 275 274 274 274 274 274 275 276 276 277 277 277 277 277 277 276 275 274 274 273 273 273 272
268 267 268 269 268 265 263 263 263 266 265 262 265 267 270 270 271 272 271 270 270 270 271 271 271 272 272 272 272 274 276 277 275 275 275 275 275 275 276 276 276 276 275 275 275 275 275 274 274 274 274 274 274 273
266 263 266 269 267 262 261 261 261 263 263 264 265 265 267 271 273 272 271 270 269 269 270 270 270 270 274 274 274 276 277 278 277 276 276 275 275 275 276 276 275 275 275 275 275 275 274 274 273 273 273 272 272 273
261 261 261 264 264 264 262 262 263 264 263 263 263 264 265 268 271 271 271 270 269 269 269 269 272 274 274 274 275 276 278 278 279 278 277 276 276 276 276 276 276 276 275 275 274 274 274 274 273 273 273 273 273 273